Time,TemperatureF,DewpointF,PressureIn,WindDirection,WindDirectionDegrees,WindSpeedMPH,WindSpeedGustMPH,Humidity,HourlyPrecipIn,Conditions,Clouds,dailyrainin,SoftwareType,DateUTC
2013-10-18 00:00:00,47.9,16.2,29.94,SSW,203,1.3,2.9,28,0.00,,,0.00,WUHU216HW,2013-10-18 07:00:00,
2013-10-18 00:01:00,47.9,16.2,29.94,SSW,203,2.5,2.9,28,0.00,,,0.00,WUHU216HW,2013-10-18 07:01:00,
2013-10-18 00:02:00,47.9,16.2,29.94,SSW,203,1.8,2.9,28,0.00,,,0.00,WUHU216HW,2013-10-18 07:02:00,
2013-10-18 00:03:00,47.9,16.2,29.94,SSW,203,2.5,2.9,28,0.00,,,0.00,WUHU216HW,2013-10-18 07:03:00,
2013-10-18 00:05:00,47.7,16.0,29.94,SW,225,1.6,3.4,28,0.00,,,0.00,WUHU216HW,2013-10-18 07:05:00,
2013-10-18 00:06:00,47.7,16.0,29.94,SSW,203,2.5,3.4,28,0.00,,,0.00,WUHU216HW,2013-10-18 07:06:00,
2013-10-18 00:07:00,47.5,15.8,29.94,SSW,203,2.9,3.6,28,0.00,,,0.00,WUHU216HW,2013-10-18 07:07:00,
2013-10-18 00:08:00,47.5,15.8,29.94,SSW,203,2.9,3.6,28,0.00,,,0.00,WUHU216HW,2013-10-18 07:08:00,
2013-10-18 00:10:00,47.2,15.6,29.94,South,180,2.5,3.6,28,0.00,,,0.00,WUHU216HW,2013-10-18 07:10:00,
2013-10-18 00:12:00,47.2,15.6,29.94,SSW,203,2.7,3.6,28,0.00,,,0.00,WUHU216HW,2013-10-18 07:12:00,
2013-10-18 00:13:00,47.2,16.5,29.94,SSW,203,2.5,3.6,29,0.00,,,0.00,WUHU216HW,2013-10-18 07:13:00,
2013-10-18 00:15:00,46.8,16.1,29.94,SSW,203,3.4,3.8,29,0.00,,,0.00,WUHU216HW,2013-10-18 07:15:00,
2013-10-18 00:17:00,46.8,16.1,29.94,SSW,203,4.0,4.0,29,0.00,,,0.00,WUHU216HW,2013-10-18 07:17:00,
2013-10-18 00:18:00,46.8,16.1,29.94,SSW,203,4.5,4.5,29,0.00,,,0.00,WUHU216HW,2013-10-18 07:18:00,
2013-10-18 00:19:00,46.6,16.0,29.94,SSW,203,4.5,4.7,29,0.00,,,0.00,WUHU216HW,2013-10-18 07:19:00,
2013-10-18 00:21:00,46.6,16.0,29.94,SSW,203,3.8,4.7,29,0.00,,,0.00,WUHU216HW,2013-10-18 07:21:00,
2013-10-18 00:22:00,46.4,15.9,29.94,SW,225,1.8,4.7,29,0.00,,,0.00,WUHU216HW,2013-10-18 07:22:00,
2013-10-18 00:23:00,46.4,15.9,29.94,SSW,203,3.8,4.7,29,0.00,,,0.00,WUHU216HW,2013-10-18 07:23:00,
2013-10-18 00:24:00,46.4,15.9,29.94,SSW,203,4.3,4.7,29,0.00,,,0.00,WUHU216HW,2013-10-18 07:24:00,
2013-10-18 00:26:00,46.4,15.9,29.94,SW,225,2.5,5.4,29,0.00,,,0.00,WUHU216HW,2013-10-18 07:26:00,
2013-10-18 00:27:00,46.4,15.9,29.94,WSW,248,3.6,5.4,29,0.00,,,0.00,WUHU216HW,2013-10-18 07:27:00,
2013-10-18 00:28:00,46.4,15.9,29.94,WSW,248,4.0,5.4,29,0.00,,,0.00,WUHU216HW,2013-10-18 07:28:00,
2013-10-18 00:29:00,46.4,16.7,29.94,SW,225,3.4,5.4,30,0.00,,,0.00,WUHU216HW,2013-10-18 07:29:00,
2013-10-18 00:30:00,46.4,15.9,29.94,SSW,203,1.8,5.4,29,0.00,,,0.00,WUHU216HW,2013-10-18 07:30:00,
2013-10-18 00:31:00,46.4,15.9,29.94,SW,225,1.1,5.4,29,0.00,,,0.00,WUHU216HW,2013-10-18 07:31:00,
2013-10-18 00:32:00,46.6,16.0,29.94,WSW,248,2.7,5.4,29,0.00,,,0.00,WUHU216HW,2013-10-18 07:32:00,
2013-10-18 00:33:00,46.6,16.0,29.94,SW,225,2.9,5.4,29,0.00,,,0.00,WUHU216HW,2013-10-18 07:33:00,
2013-10-18 00:34:00,46.6,16.0,29.94,SW,225,4.3,5.4,29,0.00,,,0.00,WUHU216HW,2013-10-18 07:34:00,
2013-10-18 00:35:00,46.8,16.1,29.94,SW,225,1.1,4.5,29,0.00,,,0.00,WUHU216HW,2013-10-18 07:35:00,
2013-10-18 00:37:00,46.8,16.1,29.94,WSW,248,2.7,4.5,29,0.00,,,0.00,WUHU216HW,2013-10-18 07:37:00,
2013-10-18 00:38:00,47.2,16.5,29.94,SW,225,1.1,4.3,29,0.00,,,0.00,WUHU216HW,2013-10-18 07:38:00,
2013-10-18 00:39:00,47.2,16.5,29.94,SW,225,1.1,4.3,29,0.00,,,0.00,WUHU216HW,2013-10-18 07:39:00,
2013-10-18 00:42:00,47.2,16.5,29.94,SW,225,1.1,4.3,29,0.00,,,0.00,WUHU216HW,2013-10-18 07:42:00,
2013-10-18 00:43:00,47.3,16.7,29.94,WSW,248,4.0,4.3,29,0.00,,,0.00,WUHU216HW,2013-10-18 07:43:00,
2013-10-18 00:44:00,47.3,16.7,29.94,SSW,203,2.9,4.3,29,0.00,,,0.00,WUHU216HW,2013-10-18 07:44:00,
2013-10-18 00:47:00,47.5,16.7,29.94,WSW,248,2.2,4.0,29,0.00,,,0.00,WUHU216HW,2013-10-18 07:47:00,
2013-10-18 00:48:00,47.5,16.7,29.94,SW,225,1.1,4.0,29,0.00,,,0.00,WUHU216HW,2013-10-18 07:48:00,
2013-10-18 00:49:00,47.5,16.7,29.94,SW,225,1.8,4.0,29,0.00,,,0.00,WUHU216HW,2013-10-18 07:49:00,
2013-10-18 00:50:00,47.5,16.7,29.94,WSW,248,1.1,4.0,29,0.00,,,0.00,WUHU216HW,2013-10-18 07:50:00,
2013-10-18 00:52:00,47.5,16.7,29.94,SSW,203,2.5,4.0,29,0.00,,,0.00,WUHU216HW,2013-10-18 07:52:00,
2013-10-18 00:53:00,47.5,16.7,29.94,SSW,203,1.8,3.4,29,0.00,,,0.00,WUHU216HW,2013-10-18 07:53:00,
2013-10-18 00:55:00,47.5,16.7,29.94,SW,225,1.8,2.5,29,0.00,,,0.00,WUHU216HW,2013-10-18 07:55:00,
2013-10-18 00:57:00,47.5,16.7,29.94,SW,225,1.6,2.7,29,0.00,,,0.00,WUHU216HW,2013-10-18 07:57:00,
2013-10-18 00:58:00,47.5,16.7,29.94,SW,225,1.1,2.7,29,0.00,,,0.00,WUHU216HW,2013-10-18 07:58:00,
2013-10-18 00:59:00,47.5,16.7,29.94,SW,225,1.3,2.7,29,0.00,,,0.00,WUHU216HW,2013-10-18 07:59:00,
2013-10-18 01:00:00,47.3,16.7,29.94,SW,225,1.1,2.7,29,0.00,,,0.00,WUHU216HW,2013-10-18 08:00:00,
2013-10-18 01:03:00,47.2,16.5,29.94,SW,225,1.3,2.7,29,0.00,,,0.00,WUHU216HW,2013-10-18 08:03:00,
2013-10-18 01:05:00,47.2,16.5,29.94,SW,225,1.8,2.9,29,0.00,,,0.00,WUHU216HW,2013-10-18 08:05:00,
2013-10-18 01:06:00,47.2,16.5,29.94,SW,225,1.3,2.9,29,0.00,,,0.00,WUHU216HW,2013-10-18 08:06:00,
2013-10-18 01:08:00,47.2,16.5,29.94,SW,225,2.2,2.9,29,0.00,,,0.00,WUHU216HW,2013-10-18 08:08:00,
2013-10-18 01:10:00,47.2,16.5,29.94,WSW,248,1.8,2.9,29,0.00,,,0.00,WUHU216HW,2013-10-18 08:10:00,
2013-10-18 01:11:00,47.2,16.5,29.94,SW,225,1.1,2.9,29,0.00,,,0.00,WUHU216HW,2013-10-18 08:11:00,
2013-10-18 01:13:00,46.8,16.1,29.94,SW,225,1.8,2.9,29,0.00,,,0.00,WUHU216HW,2013-10-18 08:13:00,
2013-10-18 01:14:00,46.8,16.1,29.94,SW,225,1.8,2.9,29,0.00,,,0.00,WUHU216HW,2013-10-18 08:14:00,
2013-10-18 01:15:00,46.8,17.1,29.94,SW,225,2.0,2.5,30,0.00,,,0.00,WUHU216HW,2013-10-18 08:15:00,
2013-10-18 01:16:00,46.8,17.1,29.94,SW,225,1.6,2.5,30,0.00,,,0.00,WUHU216HW,2013-10-18 08:16:00,
2013-10-18 01:18:00,46.6,16.9,29.94,WSW,248,1.3,2.5,30,0.00,,,0.00,WUHU216HW,2013-10-18 08:18:00,
2013-10-18 01:19:00,46.6,16.9,29.94,WSW,248,1.3,2.5,30,0.00,,,0.00,WUHU216HW,2013-10-18 08:19:00,
2013-10-18 01:20:00,46.4,16.7,29.94,SW,225,1.8,2.2,30,0.00,,,0.00,WUHU216HW,2013-10-18 08:20:00,
2013-10-18 01:21:00,46.4,16.7,29.94,SW,225,1.8,2.2,30,0.00,,,0.00,WUHU216HW,2013-10-18 08:21:00,
2013-10-18 01:24:00,46.4,16.7,29.94,SW,225,1.1,2.2,30,0.00,,,0.00,WUHU216HW,2013-10-18 08:24:00,
2013-10-18 01:25:00,46.4,16.7,29.94,SSW,203,1.1,2.2,30,0.00,,,0.00,WUHU216HW,2013-10-18 08:25:00,
2013-10-18 01:26:00,46.4,16.7,29.94,SW,225,1.1,2.2,30,0.00,,,0.00,WUHU216HW,2013-10-18 08:26:00,
2013-10-18 01:27:00,46.4,16.7,29.94,SW,225,1.1,2.2,30,0.00,,,0.00,WUHU216HW,2013-10-18 08:27:00,
2013-10-18 01:29:00,46.4,16.7,29.94,SW,225,1.8,2.2,30,0.00,,,0.00,WUHU216HW,2013-10-18 08:29:00,
2013-10-18 01:30:00,46.4,17.4,29.94,SW,225,1.8,2.2,31,0.00,,,0.00,WUHU216HW,2013-10-18 08:30:00,
2013-10-18 01:31:00,46.4,17.4,29.94,SW,225,1.6,2.0,31,0.00,,,0.00,WUHU216HW,2013-10-18 08:31:00,
2013-10-18 01:32:00,46.4,17.4,29.94,WSW,248,1.3,2.0,31,0.00,,,0.00,WUHU216HW,2013-10-18 08:32:00,
2013-10-18 01:34:00,46.4,17.4,29.94,WSW,248,2.0,2.2,31,0.00,,,0.00,WUHU216HW,2013-10-18 08:34:00,
2013-10-18 01:35:00,46.4,17.4,29.94,WSW,248,1.3,2.2,31,0.00,,,0.00,WUHU216HW,2013-10-18 08:35:00,
2013-10-18 01:36:00,46.4,17.4,29.94,WSW,248,0.9,2.2,31,0.00,,,0.00,WUHU216HW,2013-10-18 08:36:00,
2013-10-18 01:37:00,46.3,17.3,29.94,SW,225,2.0,2.2,31,0.00,,,0.00,WUHU216HW,2013-10-18 08:37:00,
2013-10-18 01:39:00,46.1,17.1,29.94,SW,225,0.4,2.2,31,0.00,,,0.00,WUHU216HW,2013-10-18 08:39:00,
2013-10-18 01:40:00,46.1,17.1,29.94,South,180,2.9,2.9,31,0.00,,,0.00,WUHU216HW,2013-10-18 08:40:00,
2013-10-18 01:41:00,46.1,17.1,29.94,SW,225,1.3,2.9,31,0.00,,,0.00,WUHU216HW,2013-10-18 08:41:00,
2013-10-18 01:42:00,45.9,16.9,29.94,SW,225,1.1,2.9,31,0.00,,,0.00,WUHU216HW,2013-10-18 08:42:00,
2013-10-18 01:44:00,45.7,17.5,29.94,SW,225,1.3,2.9,32,0.00,,,0.00,WUHU216HW,2013-10-18 08:44:00,
2013-10-18 01:45:00,45.5,17.3,29.94,SW,225,1.1,2.9,32,0.00,,,0.00,WUHU216HW,2013-10-18 08:45:00,
2013-10-18 01:46:00,45.4,17.1,29.94,SW,225,1.1,2.9,32,0.00,,,0.00,WUHU216HW,2013-10-18 08:46:00,
2013-10-18 01:47:00,45.4,17.1,29.94,SW,225,0.7,2.9,32,0.00,,,0.00,WUHU216HW,2013-10-18 08:47:00,
2013-10-18 01:49:00,45.2,16.9,29.94,SSW,203,2.2,2.9,32,0.00,,,0.00,WUHU216HW,2013-10-18 08:49:00,
2013-10-18 01:50:00,45.2,16.9,29.94,SSW,203,2.5,2.9,32,0.00,,,0.00,WUHU216HW,2013-10-18 08:50:00,
2013-10-18 01:52:00,45.2,16.9,29.94,WSW,248,2.0,2.9,32,0.00,,,0.00,WUHU216HW,2013-10-18 08:52:00,
2013-10-18 01:53:00,45.0,16.7,29.94,SW,225,1.1,2.9,32,0.00,,,0.00,WUHU216HW,2013-10-18 08:53:00,
2013-10-18 01:55:00,45.0,16.7,29.94,SW,225,1.6,2.9,32,0.00,,,0.00,WUHU216HW,2013-10-18 08:55:00,
2013-10-18 01:56:00,45.0,16.7,29.94,SSW,203,1.1,2.9,32,0.00,,,0.00,WUHU216HW,2013-10-18 08:56:00,
2013-10-18 01:58:00,45.0,16.7,29.94,SSW,203,2.5,2.9,32,0.00,,,0.00,WUHU216HW,2013-10-18 08:58:00,
2013-10-18 02:00:00,45.0,16.7,29.94,SW,225,0.9,2.5,32,0.00,,,0.00,WUHU216HW,2013-10-18 09:00:00,
2013-10-18 02:01:00,45.0,16.7,29.94,SW,225,1.1,2.5,32,0.00,,,0.00,WUHU216HW,2013-10-18 09:01:00,
2013-10-18 02:03:00,45.0,16.7,29.94,SSW,203,1.1,2.5,32,0.00,,,0.00,WUHU216HW,2013-10-18 09:03:00,
2013-10-18 02:04:00,45.0,16.7,29.94,WSW,248,1.6,2.5,32,0.00,,,0.00,WUHU216HW,2013-10-18 09:04:00,
2013-10-18 02:05:00,45.0,16.7,29.94,WSW,248,3.6,3.6,32,0.00,,,0.00,WUHU216HW,2013-10-18 09:05:00,
2013-10-18 02:06:00,45.0,16.7,29.94,SW,225,2.9,3.6,32,0.00,,,0.00,WUHU216HW,2013-10-18 09:06:00,
2013-10-18 02:08:00,44.8,16.7,29.94,SW,225,1.1,3.6,32,0.00,,,0.00,WUHU216HW,2013-10-18 09:08:00,
2013-10-18 02:09:00,44.8,17.3,29.94,WSW,248,0.7,3.6,33,0.00,,,0.00,WUHU216HW,2013-10-18 09:09:00,
2013-10-18 02:10:00,44.8,17.3,29.94,West,270,1.1,3.6,33,0.00,,,0.00,WUHU216HW,2013-10-18 09:10:00,
2013-10-18 02:11:00,44.6,17.1,29.94,West,270,1.8,3.6,33,0.00,,,0.00,WUHU216HW,2013-10-18 09:11:00,
2013-10-18 02:13:00,44.6,17.1,29.94,SSW,203,2.0,3.6,33,0.00,,,0.00,WUHU216HW,2013-10-18 09:13:00,
2013-10-18 02:15:00,44.6,17.1,29.94,SSW,203,2.2,3.6,33,0.00,,,0.00,WUHU216HW,2013-10-18 09:15:00,
2013-10-18 02:16:00,44.8,17.3,29.94,WSW,248,1.1,3.4,33,0.00,,,0.00,WUHU216HW,2013-10-18 09:16:00,
2013-10-18 02:18:00,44.8,17.3,29.94,WSW,248,1.8,3.4,33,0.00,,,0.00,WUHU216HW,2013-10-18 09:18:00,
2013-10-18 02:20:00,44.8,16.7,29.94,SW,225,0.7,3.4,32,0.00,,,0.00,WUHU216HW,2013-10-18 09:20:00,
2013-10-18 02:21:00,44.8,16.7,29.94,SW,225,1.1,3.4,32,0.00,,,0.00,WUHU216HW,2013-10-18 09:21:00,
2013-10-18 02:22:00,44.8,16.7,29.94,SW,225,0.4,3.4,32,0.00,,,0.00,WUHU216HW,2013-10-18 09:22:00,
2013-10-18 02:23:00,44.8,16.7,29.94,WSW,248,0.4,3.4,32,0.00,,,0.00,WUHU216HW,2013-10-18 09:23:00,
2013-10-18 02:24:00,45.0,16.7,29.94,WSW,248,0.7,3.4,32,0.00,,,0.00,WUHU216HW,2013-10-18 09:24:00,
2013-10-18 02:25:00,45.0,16.7,29.94,WSW,248,2.5,3.1,32,0.00,,,0.00,WUHU216HW,2013-10-18 09:25:00,
2013-10-18 02:26:00,45.0,16.7,29.94,WSW,248,2.5,3.1,32,0.00,,,0.00,WUHU216HW,2013-10-18 09:26:00,
2013-10-18 02:27:00,45.0,16.7,29.94,SW,225,1.8,3.1,32,0.00,,,0.00,WUHU216HW,2013-10-18 09:27:00,
2013-10-18 02:28:00,45.0,16.7,29.94,WSW,248,2.5,3.1,32,0.00,,,0.00,WUHU216HW,2013-10-18 09:28:00,
2013-10-18 02:29:00,45.0,16.7,29.94,SW,225,2.5,3.1,32,0.00,,,0.00,WUHU216HW,2013-10-18 09:29:00,
2013-10-18 02:30:00,44.8,16.7,29.94,SW,225,2.5,3.4,32,0.00,,,0.00,WUHU216HW,2013-10-18 09:30:00,
2013-10-18 02:31:00,44.8,16.7,29.94,SW,225,2.5,3.4,32,0.00,,,0.00,WUHU216HW,2013-10-18 09:31:00,
2013-10-18 02:32:00,44.8,16.7,29.94,WSW,248,2.5,3.4,32,0.00,,,0.00,WUHU216HW,2013-10-18 09:32:00,
2013-10-18 02:33:00,44.8,16.7,29.94,WSW,248,2.7,3.4,32,0.00,,,0.00,WUHU216HW,2013-10-18 09:33:00,
2013-10-18 02:35:00,44.8,16.7,29.94,SSW,203,1.1,3.4,32,0.00,,,0.00,WUHU216HW,2013-10-18 09:35:00,
2013-10-18 02:36:00,44.8,16.7,29.94,SW,225,1.1,3.4,32,0.00,,,0.00,WUHU216HW,2013-10-18 09:36:00,
2013-10-18 02:38:00,44.8,16.7,29.94,SW,225,2.5,3.4,32,0.00,,,0.00,WUHU216HW,2013-10-18 09:38:00,
2013-10-18 02:39:00,44.6,16.5,29.94,WSW,248,2.5,3.4,32,0.00,,,0.00,WUHU216HW,2013-10-18 09:39:00,
2013-10-18 02:40:00,44.6,16.5,29.94,WSW,248,4.3,4.3,32,0.00,,,0.00,WUHU216HW,2013-10-18 09:40:00,
2013-10-18 02:41:00,44.6,16.5,29.94,WSW,248,5.1,5.4,32,0.00,,,0.00,WUHU216HW,2013-10-18 09:41:00,
2013-10-18 02:43:00,44.6,16.5,29.94,SSW,203,1.8,5.4,32,0.00,,,0.00,WUHU216HW,2013-10-18 09:43:00,
2013-10-18 02:45:00,44.6,16.5,29.94,South,180,3.4,5.4,32,0.00,,,0.00,WUHU216HW,2013-10-18 09:45:00,
2013-10-18 02:46:00,44.6,16.5,29.94,South,180,3.6,5.4,32,0.00,,,0.00,WUHU216HW,2013-10-18 09:46:00,
2013-10-18 02:48:00,44.8,16.7,29.94,WSW,248,0.9,5.4,32,0.00,,,0.00,WUHU216HW,2013-10-18 09:48:00,
2013-10-18 02:49:00,44.8,16.7,29.94,WSW,248,2.5,5.4,32,0.00,,,0.00,WUHU216HW,2013-10-18 09:49:00,
2013-10-18 02:50:00,45.0,16.7,29.94,SW,225,0.9,5.4,32,0.00,,,0.00,WUHU216HW,2013-10-18 09:50:00,
2013-10-18 02:51:00,45.0,16.7,29.94,SSW,203,1.1,4.9,32,0.00,,,0.00,WUHU216HW,2013-10-18 09:51:00,
2013-10-18 02:53:00,45.0,16.7,29.94,SW,225,0.9,3.8,32,0.00,,,0.00,WUHU216HW,2013-10-18 09:53:00,
2013-10-18 02:54:00,45.0,16.7,29.94,WSW,248,0.4,3.8,32,0.00,,,0.00,WUHU216HW,2013-10-18 09:54:00,
2013-10-18 02:55:00,45.0,16.7,29.94,WSW,248,1.8,3.6,32,0.00,,,0.00,WUHU216HW,2013-10-18 09:55:00,
2013-10-18 02:56:00,45.0,16.7,29.94,WSW,248,1.8,3.1,32,0.00,,,0.00,WUHU216HW,2013-10-18 09:56:00,
2013-10-18 02:57:00,45.0,16.7,29.94,WSW,248,2.0,3.1,32,0.00,,,0.00,WUHU216HW,2013-10-18 09:57:00,
2013-10-18 02:58:00,45.0,16.7,29.94,SW,225,1.6,3.1,32,0.00,,,0.00,WUHU216HW,2013-10-18 09:58:00,
2013-10-18 02:59:00,45.0,16.7,29.94,WSW,248,1.6,2.2,32,0.00,,,0.00,WUHU216HW,2013-10-18 09:59:00,
2013-10-18 03:00:00,44.8,16.7,29.94,SW,225,2.7,3.1,32,0.00,,,0.00,WUHU216HW,2013-10-18 10:00:00,
2013-10-18 03:01:00,44.8,16.7,29.94,SW,225,2.9,3.1,32,0.00,,,0.00,WUHU216HW,2013-10-18 10:01:00,
2013-10-18 03:02:00,44.8,16.7,29.94,SSW,203,3.4,3.4,32,0.00,,,0.00,WUHU216HW,2013-10-18 10:02:00,
2013-10-18 03:03:00,44.8,16.7,29.94,SSW,203,4.0,4.0,32,0.00,,,0.00,WUHU216HW,2013-10-18 10:03:00,
2013-10-18 03:04:00,44.8,16.7,29.94,WSW,248,0.4,4.0,32,0.00,,,0.00,WUHU216HW,2013-10-18 10:04:00,
2013-10-18 03:05:00,44.8,16.7,29.94,NW,315,1.1,4.0,32,0.00,,,0.00,WUHU216HW,2013-10-18 10:05:00,
2013-10-18 03:06:00,44.8,16.7,29.94,NW,315,1.6,4.0,32,0.00,,,0.00,WUHU216HW,2013-10-18 10:06:00,
2013-10-18 03:08:00,44.8,16.7,29.94,WSW,248,1.8,4.0,32,0.00,,,0.00,WUHU216HW,2013-10-18 10:08:00,
2013-10-18 03:09:00,44.8,16.7,29.94,SW,225,1.8,4.0,32,0.00,,,0.00,WUHU216HW,2013-10-18 10:09:00,
2013-10-18 03:10:00,44.8,16.7,29.94,WSW,248,2.0,4.0,32,0.00,,,0.00,WUHU216HW,2013-10-18 10:10:00,
2013-10-18 03:11:00,44.8,16.7,29.94,WSW,248,2.5,4.0,32,0.00,,,0.00,WUHU216HW,2013-10-18 10:11:00,
2013-10-18 03:13:00,44.8,16.7,29.94,WSW,248,2.2,3.6,32,0.00,,,0.00,WUHU216HW,2013-10-18 10:13:00,
2013-10-18 03:14:00,44.8,16.7,29.94,SSW,203,1.8,3.1,32,0.00,,,0.00,WUHU216HW,2013-10-18 10:14:00,
2013-10-18 03:15:00,44.8,16.7,29.94,SSW,203,1.3,3.1,32,0.00,,,0.00,WUHU216HW,2013-10-18 10:15:00,
2013-10-18 03:16:00,44.8,16.7,29.94,SW,225,1.1,3.1,32,0.00,,,0.00,WUHU216HW,2013-10-18 10:16:00,
2013-10-18 03:17:00,44.8,16.7,29.94,WSW,248,0.9,3.1,32,0.00,,,0.00,WUHU216HW,2013-10-18 10:17:00,
2013-10-18 03:18:00,44.8,16.7,29.94,WSW,248,1.1,3.1,32,0.00,,,0.00,WUHU216HW,2013-10-18 10:18:00,
2013-10-18 03:20:00,44.8,16.7,29.94,SW,225,1.1,3.1,32,0.00,,,0.00,WUHU216HW,2013-10-18 10:20:00,
2013-10-18 03:21:00,44.8,16.7,29.94,SW,225,1.1,3.1,32,0.00,,,0.00,WUHU216HW,2013-10-18 10:21:00,
2013-10-18 03:22:00,44.8,16.7,29.93,SSW,203,1.1,3.1,32,0.00,,,0.00,WUHU216HW,2013-10-18 10:22:00,
2013-10-18 03:23:00,44.6,17.1,29.93,SW,225,1.1,1.8,33,0.00,,,0.00,WUHU216HW,2013-10-18 10:23:00,
2013-10-18 03:25:00,44.6,17.1,29.94,WSW,248,1.8,1.8,33,0.00,,,0.00,WUHU216HW,2013-10-18 10:25:00,
2013-10-18 03:26:00,44.6,16.5,29.94,SW,225,1.1,2.0,32,0.00,,,0.00,WUHU216HW,2013-10-18 10:26:00,
2013-10-18 03:27:00,44.6,16.5,29.94,WSW,248,1.3,2.0,32,0.00,,,0.00,WUHU216HW,2013-10-18 10:27:00,
2013-10-18 03:28:00,44.5,16.3,29.94,SW,225,2.0,2.2,32,0.00,,,0.00,WUHU216HW,2013-10-18 10:28:00,
2013-10-18 03:30:00,44.5,16.9,29.94,WSW,248,2.2,2.2,33,0.00,,,0.00,WUHU216HW,2013-10-18 10:30:00,
2013-10-18 03:31:00,44.5,16.3,29.94,WSW,248,2.5,2.5,32,0.00,,,0.00,WUHU216HW,2013-10-18 10:31:00,
2013-10-18 03:32:00,44.5,16.3,29.94,WSW,248,1.8,2.5,32,0.00,,,0.00,WUHU216HW,2013-10-18 10:32:00,
2013-10-18 03:33:00,44.5,16.9,29.94,WSW,248,1.1,2.5,33,0.00,,,0.00,WUHU216HW,2013-10-18 10:33:00,
2013-10-18 03:35:00,44.5,16.9,29.94,WSW,248,1.6,3.4,33,0.00,,,0.00,WUHU216HW,2013-10-18 10:35:00,
2013-10-18 03:37:00,44.6,17.1,29.94,WSW,248,2.7,3.4,33,0.00,,,0.00,WUHU216HW,2013-10-18 10:37:00,
2013-10-18 03:38:00,44.6,17.1,29.94,SW,225,2.9,3.4,33,0.00,,,0.00,WUHU216HW,2013-10-18 10:38:00,
2013-10-18 03:39:00,44.6,17.1,29.94,WSW,248,3.4,4.3,33,0.00,,,0.00,WUHU216HW,2013-10-18 10:39:00,
2013-10-18 03:40:00,44.6,17.1,29.94,SW,225,2.5,4.3,33,0.00,,,0.00,WUHU216HW,2013-10-18 10:40:00,
2013-10-18 03:42:00,44.6,17.1,29.94,SSW,203,2.5,4.3,33,0.00,,,0.00,WUHU216HW,2013-10-18 10:42:00,
2013-10-18 03:43:00,44.6,16.5,29.94,WSW,248,1.8,4.3,32,0.00,,,0.00,WUHU216HW,2013-10-18 10:43:00,
2013-10-18 03:44:00,44.6,16.5,29.94,WSW,248,1.1,4.3,32,0.00,,,0.00,WUHU216HW,2013-10-18 10:44:00,
2013-10-18 03:45:00,44.6,17.1,29.94,West,270,2.2,4.3,33,0.00,,,0.00,WUHU216HW,2013-10-18 10:45:00,
2013-10-18 03:47:00,44.6,16.5,29.94,WSW,248,1.1,4.3,32,0.00,,,0.00,WUHU216HW,2013-10-18 10:47:00,
2013-10-18 03:48:00,44.6,16.5,29.94,WSW,248,1.8,4.3,32,0.00,,,0.00,WUHU216HW,2013-10-18 10:48:00,
2013-10-18 03:49:00,44.5,16.9,29.94,WSW,248,1.6,3.6,33,0.00,,,0.00,WUHU216HW,2013-10-18 10:49:00,
2013-10-18 03:50:00,44.3,16.8,29.94,SW,225,1.1,3.6,33,0.00,,,0.00,WUHU216HW,2013-10-18 10:50:00,
2013-10-18 03:52:00,44.3,16.8,29.94,WSW,248,2.5,3.6,33,0.00,,,0.00,WUHU216HW,2013-10-18 10:52:00,
2013-10-18 03:53:00,44.3,16.8,29.94,WSW,248,2.2,3.6,33,0.00,,,0.00,WUHU216HW,2013-10-18 10:53:00,
2013-10-18 03:54:00,44.3,16.8,29.94,WSW,248,2.2,3.6,33,0.00,,,0.00,WUHU216HW,2013-10-18 10:54:00,
2013-10-18 03:55:00,43.9,16.5,29.94,SW,225,2.5,3.6,33,0.00,,,0.00,WUHU216HW,2013-10-18 10:55:00,
2013-10-18 03:56:00,43.9,16.5,29.94,WSW,248,3.4,3.6,33,0.00,,,0.00,WUHU216HW,2013-10-18 10:56:00,
2013-10-18 03:57:00,43.7,16.3,29.94,WSW,248,3.1,3.6,33,0.00,,,0.00,WUHU216HW,2013-10-18 10:57:00,
2013-10-18 03:59:00,43.6,16.1,29.94,SW,225,0.4,3.4,33,0.00,,,0.00,WUHU216HW,2013-10-18 10:59:00,
2013-10-18 04:00:00,43.6,16.1,29.94,West,270,4.5,4.5,33,0.00,,,0.00,WUHU216HW,2013-10-18 11:00:00,
2013-10-18 04:01:00,43.4,16.0,29.94,WSW,248,3.8,4.5,33,0.00,,,0.00,WUHU216HW,2013-10-18 11:01:00,
2013-10-18 04:02:00,43.4,16.0,29.94,SW,225,2.5,4.5,33,0.00,,,0.00,WUHU216HW,2013-10-18 11:02:00,
2013-10-18 04:04:00,43.2,15.9,29.94,SW,225,1.1,4.5,33,0.00,,,0.00,WUHU216HW,2013-10-18 11:04:00,
2013-10-18 04:06:00,43.4,16.7,29.94,WSW,248,3.6,4.5,34,0.00,,,0.00,WUHU216HW,2013-10-18 11:06:00,
2013-10-18 04:07:00,43.4,16.7,29.94,West,270,3.4,4.5,34,0.00,,,0.00,WUHU216HW,2013-10-18 11:07:00,
2013-10-18 04:08:00,43.4,16.7,29.94,SW,225,2.5,4.5,34,0.00,,,0.00,WUHU216HW,2013-10-18 11:08:00,
2013-10-18 04:09:00,43.6,16.8,29.94,SSW,203,1.8,4.5,34,0.00,,,0.00,WUHU216HW,2013-10-18 11:09:00,
2013-10-18 04:11:00,43.6,16.1,29.94,SW,225,1.8,4.0,33,0.00,,,0.00,WUHU216HW,2013-10-18 11:11:00,
2013-10-18 04:12:00,43.6,16.8,29.94,SSW,203,2.0,4.0,34,0.00,,,0.00,WUHU216HW,2013-10-18 11:12:00,
2013-10-18 04:13:00,43.6,16.8,29.94,SW,225,0.4,4.0,34,0.00,,,0.00,WUHU216HW,2013-10-18 11:13:00,
2013-10-18 04:14:00,43.6,16.8,29.94,SW,225,1.1,4.0,34,0.00,,,0.00,WUHU216HW,2013-10-18 11:14:00,
2013-10-18 04:16:00,43.6,16.8,29.94,SW,225,1.3,4.0,34,0.00,,,0.00,WUHU216HW,2013-10-18 11:16:00,
2013-10-18 04:17:00,43.6,16.8,29.94,WSW,248,1.3,4.0,34,0.00,,,0.00,WUHU216HW,2013-10-18 11:17:00,
2013-10-18 04:18:00,43.6,16.8,29.94,SW,225,1.1,4.0,34,0.00,,,0.00,WUHU216HW,2013-10-18 11:18:00,
2013-10-18 04:19:00,43.6,16.8,29.94,South,180,2.7,4.0,34,0.00,,,0.00,WUHU216HW,2013-10-18 11:19:00,
2013-10-18 04:21:00,43.6,16.1,29.94,SW,225,1.6,3.1,33,0.00,,,0.00,WUHU216HW,2013-10-18 11:21:00,
2013-10-18 04:22:00,43.6,16.1,29.94,WSW,248,1.1,3.1,33,0.00,,,0.00,WUHU216HW,2013-10-18 11:22:00,
2013-10-18 04:23:00,43.6,16.1,29.94,SW,225,1.6,3.1,33,0.00,,,0.00,WUHU216HW,2013-10-18 11:23:00,
2013-10-18 04:24:00,43.6,16.1,29.94,SSW,203,2.2,3.1,33,0.00,,,0.00,WUHU216HW,2013-10-18 11:24:00,
2013-10-18 04:25:00,43.6,16.1,29.94,SSW,203,2.9,3.4,33,0.00,,,0.00,WUHU216HW,2013-10-18 11:25:00,
2013-10-18 04:26:00,43.6,16.1,29.94,SSW,203,1.8,3.4,33,0.00,,,0.00,WUHU216HW,2013-10-18 11:26:00,
2013-10-18 04:28:00,43.6,16.1,29.94,SSW,203,0.7,3.4,33,0.00,,,0.00,WUHU216HW,2013-10-18 11:28:00,
2013-10-18 04:29:00,43.6,16.1,29.94,SSW,203,2.5,3.4,33,0.00,,,0.00,WUHU216HW,2013-10-18 11:29:00,
2013-10-18 04:30:00,43.6,16.1,29.94,SSW,203,2.5,3.4,33,0.00,,,0.00,WUHU216HW,2013-10-18 11:30:00,
2013-10-18 04:32:00,43.6,16.8,29.94,SW,225,0.9,3.4,34,0.00,,,0.00,WUHU216HW,2013-10-18 11:32:00,
2013-10-18 04:33:00,43.6,16.8,29.94,SSW,203,1.1,3.4,34,0.00,,,0.00,WUHU216HW,2013-10-18 11:33:00,
2013-10-18 04:34:00,43.6,16.1,29.94,SSW,203,2.0,3.4,33,0.00,,,0.00,WUHU216HW,2013-10-18 11:34:00,
2013-10-18 04:35:00,43.6,16.8,29.94,SW,225,2.9,3.1,34,0.00,,,0.00,WUHU216HW,2013-10-18 11:35:00,
2013-10-18 04:37:00,43.6,17.5,29.94,SSW,203,1.1,2.9,35,0.00,,,0.00,WUHU216HW,2013-10-18 11:37:00,
2013-10-18 04:38:00,43.6,17.5,29.94,SW,225,0.7,2.9,35,0.00,,,0.00,WUHU216HW,2013-10-18 11:38:00,
2013-10-18 04:39:00,43.4,17.3,29.94,SW,225,1.1,2.9,35,0.00,,,0.00,WUHU216HW,2013-10-18 11:39:00,
2013-10-18 04:40:00,43.4,17.3,29.94,SW,225,2.2,2.9,35,0.00,,,0.00,WUHU216HW,2013-10-18 11:40:00,
2013-10-18 04:42:00,43.2,17.2,29.95,SW,225,1.1,2.9,35,0.00,,,0.00,WUHU216HW,2013-10-18 11:42:00,
2013-10-18 04:43:00,43.2,17.2,29.94,SW,225,1.1,2.9,35,0.00,,,0.00,WUHU216HW,2013-10-18 11:43:00,
2013-10-18 04:44:00,43.2,17.2,29.94,SW,225,1.1,2.9,35,0.00,,,0.00,WUHU216HW,2013-10-18 11:44:00,
2013-10-18 04:45:00,43.0,17.0,29.94,SW,225,1.1,2.2,35,0.00,,,0.00,WUHU216HW,2013-10-18 11:45:00,
2013-10-18 04:46:00,43.0,17.0,29.94,WSW,248,0.9,2.2,35,0.00,,,0.00,WUHU216HW,2013-10-18 11:46:00,
2013-10-18 04:48:00,43.0,17.0,29.94,WSW,248,1.1,2.2,35,0.00,,,0.00,WUHU216HW,2013-10-18 11:48:00,
2013-10-18 04:49:00,43.0,17.0,29.94,SW,225,1.6,2.2,35,0.00,,,0.00,WUHU216HW,2013-10-18 11:49:00,
2013-10-18 04:51:00,43.0,17.0,29.94,SW,225,2.0,2.9,35,0.00,,,0.00,WUHU216HW,2013-10-18 11:51:00,
2013-10-18 04:53:00,43.0,17.0,29.94,SW,225,1.3,2.9,35,0.00,,,0.00,WUHU216HW,2013-10-18 11:53:00,
2013-10-18 04:54:00,43.0,17.0,29.94,SW,225,1.6,2.9,35,0.00,,,0.00,WUHU216HW,2013-10-18 11:54:00,
2013-10-18 04:56:00,42.8,16.8,29.94,SW,225,2.0,2.9,35,0.00,,,0.00,WUHU216HW,2013-10-18 11:56:00,
2013-10-18 04:57:00,42.8,16.8,29.94,SW,225,1.8,2.9,35,0.00,,,0.00,WUHU216HW,2013-10-18 11:57:00,
2013-10-18 04:58:00,42.8,16.8,29.94,SW,225,1.3,2.9,35,0.00,,,0.00,WUHU216HW,2013-10-18 11:58:00,
2013-10-18 04:59:00,42.8,16.8,29.94,WSW,248,1.1,2.9,35,0.00,,,0.00,WUHU216HW,2013-10-18 11:59:00,
2013-10-18 05:00:00,42.8,16.8,29.94,WSW,248,0.4,2.9,35,0.00,,,0.00,WUHU216HW,2013-10-18 12:00:00,
2013-10-18 05:02:00,42.8,16.8,29.94,SW,225,1.6,2.5,35,0.00,,,0.00,WUHU216HW,2013-10-18 12:02:00,
2013-10-18 05:03:00,42.8,16.8,29.94,WSW,248,1.1,2.5,35,0.00,,,0.00,WUHU216HW,2013-10-18 12:03:00,
2013-10-18 05:04:00,42.8,16.8,29.94,WSW,248,1.3,2.5,35,0.00,,,0.00,WUHU216HW,2013-10-18 12:04:00,
2013-10-18 05:05:00,42.8,16.8,29.94,WSW,248,2.2,2.9,35,0.00,,,0.00,WUHU216HW,2013-10-18 12:05:00,
2013-10-18 05:07:00,42.8,16.8,29.94,SW,225,0.9,2.9,35,0.00,,,0.00,WUHU216HW,2013-10-18 12:07:00,
2013-10-18 05:08:00,42.7,16.7,29.95,SW,225,1.1,2.9,35,0.00,,,0.00,WUHU216HW,2013-10-18 12:08:00,
2013-10-18 05:09:00,42.7,16.7,29.95,SSW,203,1.3,2.9,35,0.00,,,0.00,WUHU216HW,2013-10-18 12:09:00,
2013-10-18 05:10:00,42.7,16.7,29.95,SW,225,1.6,2.9,35,0.00,,,0.00,WUHU216HW,2013-10-18 12:10:00,
2013-10-18 05:12:00,42.7,16.7,29.95,WSW,248,1.1,2.9,35,0.00,,,0.00,WUHU216HW,2013-10-18 12:12:00,
2013-10-18 05:13:00,42.5,16.6,29.95,SW,225,0.7,2.9,35,0.00,,,0.00,WUHU216HW,2013-10-18 12:13:00,
2013-10-18 05:15:00,42.5,16.6,29.95,SW,225,1.1,2.9,35,0.00,,,0.00,WUHU216HW,2013-10-18 12:15:00,
2013-10-18 05:17:00,42.5,16.6,29.95,SW,225,1.6,2.2,35,0.00,,,0.00,WUHU216HW,2013-10-18 12:17:00,
2013-10-18 05:18:00,42.3,17.0,29.95,SW,225,0.7,2.2,36,0.00,,,0.00,WUHU216HW,2013-10-18 12:18:00,
2013-10-18 05:20:00,42.3,17.0,29.95,SW,225,1.6,3.1,36,0.00,,,0.00,WUHU216HW,2013-10-18 12:20:00,
2013-10-18 05:21:00,42.3,17.0,29.95,SW,225,1.8,3.1,36,0.00,,,0.00,WUHU216HW,2013-10-18 12:21:00,
2013-10-18 05:22:00,42.3,17.0,29.95,SSW,203,1.1,3.1,36,0.00,,,0.00,WUHU216HW,2013-10-18 12:22:00,
2013-10-18 05:23:00,42.3,17.0,29.95,SW,225,1.8,3.1,36,0.00,,,0.00,WUHU216HW,2013-10-18 12:23:00,
2013-10-18 05:25:00,42.1,16.9,29.95,SW,225,2.2,3.1,36,0.00,,,0.00,WUHU216HW,2013-10-18 12:25:00,
2013-10-18 05:26:00,42.1,16.9,29.95,SW,225,1.8,3.1,36,0.00,,,0.00,WUHU216HW,2013-10-18 12:26:00,
2013-10-18 05:27:00,42.1,16.9,29.95,SW,225,1.6,3.1,36,0.00,,,0.00,WUHU216HW,2013-10-18 12:27:00,
2013-10-18 05:28:00,42.1,16.9,29.95,SW,225,1.3,3.1,36,0.00,,,0.00,WUHU216HW,2013-10-18 12:28:00,
2013-10-18 05:29:00,42.1,16.9,29.95,SW,225,1.8,3.1,36,0.00,,,0.00,WUHU216HW,2013-10-18 12:29:00,
2013-10-18 05:30:00,42.1,16.9,29.95,WSW,248,2.0,2.2,36,0.00,,,0.00,WUHU216HW,2013-10-18 12:30:00,
2013-10-18 05:31:00,42.1,16.9,29.95,WSW,248,2.5,2.5,36,0.00,,,0.00,WUHU216HW,2013-10-18 12:31:00,
2013-10-18 05:32:00,42.1,16.9,29.95,WSW,248,2.7,2.7,36,0.00,,,0.00,WUHU216HW,2013-10-18 12:32:00,
2013-10-18 05:33:00,42.1,16.9,29.95,WSW,248,2.5,2.7,36,0.00,,,0.00,WUHU216HW,2013-10-18 12:33:00,
2013-10-18 05:34:00,42.1,16.9,29.95,SW,225,1.8,2.7,36,0.00,,,0.00,WUHU216HW,2013-10-18 12:34:00,
2013-10-18 05:35:00,42.1,16.9,29.95,SW,225,2.2,2.7,36,0.00,,,0.00,WUHU216HW,2013-10-18 12:35:00,
2013-10-18 05:36:00,42.1,16.9,29.95,SW,225,2.9,3.4,36,0.00,,,0.00,WUHU216HW,2013-10-18 12:36:00,
2013-10-18 05:38:00,42.1,16.9,29.95,WSW,248,2.7,3.4,36,0.00,,,0.00,WUHU216HW,2013-10-18 12:38:00,
2013-10-18 05:39:00,42.1,16.9,29.95,WSW,248,2.7,3.4,36,0.00,,,0.00,WUHU216HW,2013-10-18 12:39:00,
2013-10-18 05:40:00,42.1,16.9,29.95,SSW,203,1.1,3.4,36,0.00,,,0.00,WUHU216HW,2013-10-18 12:40:00,
2013-10-18 05:41:00,42.1,16.9,29.95,SSW,203,2.0,3.4,36,0.00,,,0.00,WUHU216HW,2013-10-18 12:41:00,
2013-10-18 05:42:00,42.1,16.9,29.95,SW,225,1.1,3.4,36,0.00,,,0.00,WUHU216HW,2013-10-18 12:42:00,
2013-10-18 05:43:00,42.1,16.9,29.95,SW,225,0.9,3.4,36,0.00,,,0.00,WUHU216HW,2013-10-18 12:43:00,
2013-10-18 05:44:00,42.1,16.9,29.96,WSW,248,1.1,3.4,36,0.00,,,0.00,WUHU216HW,2013-10-18 12:44:00,
2013-10-18 05:45:00,42.1,16.9,29.96,West,270,3.1,3.4,36,0.00,,,0.00,WUHU216HW,2013-10-18 12:45:00,
2013-10-18 05:46:00,42.1,16.9,29.96,WSW,248,2.7,3.6,36,0.00,,,0.00,WUHU216HW,2013-10-18 12:46:00,
2013-10-18 05:48:00,42.1,16.9,29.96,SW,225,3.4,3.6,36,0.00,,,0.00,WUHU216HW,2013-10-18 12:48:00,
2013-10-18 05:50:00,42.1,16.9,29.96,WSW,248,0.7,3.6,36,0.00,,,0.00,WUHU216HW,2013-10-18 12:50:00,
2013-10-18 05:51:00,42.1,16.9,29.96,WSW,248,0.9,3.6,36,0.00,,,0.00,WUHU216HW,2013-10-18 12:51:00,
2013-10-18 05:53:00,42.1,16.9,29.96,SW,225,2.5,3.6,36,0.00,,,0.00,WUHU216HW,2013-10-18 12:53:00,
2013-10-18 05:55:00,42.1,16.9,29.96,WSW,248,1.6,3.6,36,0.00,,,0.00,WUHU216HW,2013-10-18 12:55:00,
2013-10-18 05:56:00,42.1,16.9,29.96,WSW,248,1.1,3.4,36,0.00,,,0.00,WUHU216HW,2013-10-18 12:56:00,
2013-10-18 05:57:00,42.1,16.9,29.96,WSW,248,1.6,3.4,36,0.00,,,0.00,WUHU216HW,2013-10-18 12:57:00,
2013-10-18 05:58:00,42.1,16.9,29.96,WSW,248,1.3,2.7,36,0.00,,,0.00,WUHU216HW,2013-10-18 12:58:00,
2013-10-18 05:59:00,42.1,16.9,29.96,SW,225,1.6,2.7,36,0.00,,,0.00,WUHU216HW,2013-10-18 12:59:00,
2013-10-18 06:01:00,42.1,16.9,29.96,WSW,248,1.3,2.7,36,0.00,,,0.00,WUHU216HW,2013-10-18 13:01:00,
2013-10-18 06:02:00,42.1,16.9,29.96,WSW,248,2.7,2.7,36,0.00,,,0.00,WUHU216HW,2013-10-18 13:02:00,
2013-10-18 06:04:00,42.1,16.9,29.96,SW,225,2.2,2.7,36,0.00,,,0.00,WUHU216HW,2013-10-18 13:04:00,
2013-10-18 06:06:00,42.1,16.2,29.96,WSW,248,1.3,2.7,35,0.00,,,0.00,WUHU216HW,2013-10-18 13:06:00,
2013-10-18 06:07:00,42.1,16.2,29.96,WSW,248,1.1,2.7,35,0.00,,,0.00,WUHU216HW,2013-10-18 13:07:00,
2013-10-18 06:09:00,42.1,16.9,29.96,West,270,2.5,2.9,36,0.00,,,0.00,WUHU216HW,2013-10-18 13:09:00,
2013-10-18 06:10:00,42.1,16.9,29.96,WSW,248,3.4,3.4,36,0.00,,,0.00,WUHU216HW,2013-10-18 13:10:00,
2013-10-18 06:11:00,42.1,16.9,29.96,SW,225,3.1,3.6,36,0.00,,,0.00,WUHU216HW,2013-10-18 13:11:00,
2013-10-18 06:13:00,42.1,16.9,29.96,SW,225,2.5,3.6,36,0.00,,,0.00,WUHU216HW,2013-10-18 13:13:00,
2013-10-18 06:14:00,42.1,16.9,29.96,WSW,248,2.5,3.6,36,0.00,,,0.00,WUHU216HW,2013-10-18 13:14:00,
2013-10-18 06:16:00,42.1,16.2,29.96,WSW,248,2.0,3.6,35,0.00,,,0.00,WUHU216HW,2013-10-18 13:16:00,
2013-10-18 06:18:00,42.1,16.2,29.96,WSW,248,1.1,3.6,35,0.00,,,0.00,WUHU216HW,2013-10-18 13:18:00,
2013-10-18 06:19:00,42.1,16.2,29.96,WSW,248,1.6,3.6,35,0.00,,,0.00,WUHU216HW,2013-10-18 13:19:00,
2013-10-18 06:21:00,42.1,16.2,29.96,SW,225,1.3,2.5,35,0.00,,,0.00,WUHU216HW,2013-10-18 13:21:00,
2013-10-18 06:23:00,42.1,16.2,29.96,WSW,248,2.0,2.5,35,0.00,,,0.00,WUHU216HW,2013-10-18 13:23:00,
2013-10-18 06:24:00,42.1,16.2,29.96,SW,225,2.5,2.5,35,0.00,,,0.00,WUHU216HW,2013-10-18 13:24:00,
2013-10-18 06:26:00,42.1,16.2,29.96,SW,225,1.8,2.5,35,0.00,,,0.00,WUHU216HW,2013-10-18 13:26:00,
2013-10-18 06:27:00,42.1,16.2,29.96,SW,225,1.6,2.5,35,0.00,,,0.00,WUHU216HW,2013-10-18 13:27:00,
2013-10-18 06:28:00,42.1,16.2,29.97,WSW,248,1.8,2.5,35,0.00,,,0.00,WUHU216HW,2013-10-18 13:28:00,
2013-10-18 06:29:00,42.1,16.2,29.97,WSW,248,1.8,2.5,35,0.00,,,0.00,WUHU216HW,2013-10-18 13:29:00,
2013-10-18 06:31:00,42.1,16.2,29.97,WSW,248,0.9,2.5,35,0.00,,,0.00,WUHU216HW,2013-10-18 13:31:00,
2013-10-18 06:32:00,42.1,16.2,29.97,WSW,248,0.9,2.5,35,0.00,,,0.00,WUHU216HW,2013-10-18 13:32:00,
2013-10-18 06:33:00,42.1,16.9,29.97,SW,225,1.3,2.5,36,0.00,,,0.00,WUHU216HW,2013-10-18 13:33:00,
2013-10-18 06:35:00,42.1,16.9,29.97,SW,225,1.3,2.5,36,0.00,,,0.00,WUHU216HW,2013-10-18 13:35:00,
2013-10-18 06:36:00,42.1,16.9,29.97,WSW,248,1.6,2.5,36,0.00,,,0.00,WUHU216HW,2013-10-18 13:36:00,
2013-10-18 06:37:00,42.1,16.9,29.97,WSW,248,1.6,2.5,36,0.00,,,0.00,WUHU216HW,2013-10-18 13:37:00,
2013-10-18 06:38:00,42.3,17.0,29.97,WSW,248,2.5,2.5,36,0.00,,,0.00,WUHU216HW,2013-10-18 13:38:00,
2013-10-18 06:40:00,42.5,17.2,29.97,WSW,248,2.0,2.5,36,0.00,,,0.00,WUHU216HW,2013-10-18 13:40:00,
2013-10-18 06:42:00,42.5,17.2,29.97,WSW,248,2.2,2.5,36,0.00,,,0.00,WUHU216HW,2013-10-18 13:42:00,
2013-10-18 06:43:00,42.5,17.2,29.97,WSW,248,2.7,2.7,36,0.00,,,0.00,WUHU216HW,2013-10-18 13:43:00,
2013-10-18 06:45:00,42.8,17.5,29.97,WSW,248,2.0,2.7,36,0.00,,,0.00,WUHU216HW,2013-10-18 13:45:00,
2013-10-18 06:47:00,42.8,17.5,29.97,SW,225,3.1,3.8,36,0.00,,,0.00,WUHU216HW,2013-10-18 13:47:00,
2013-10-18 06:48:00,42.8,17.5,29.97,WSW,248,2.5,3.8,36,0.00,,,0.00,WUHU216HW,2013-10-18 13:48:00,
2013-10-18 06:49:00,42.8,17.5,29.97,SW,225,1.8,3.8,36,0.00,,,0.00,WUHU216HW,2013-10-18 13:49:00,
2013-10-18 06:50:00,43.0,17.6,29.97,WSW,248,2.0,3.8,36,0.00,,,0.00,WUHU216HW,2013-10-18 13:50:00,
2013-10-18 06:52:00,43.2,17.8,29.97,SW,225,2.9,3.8,36,0.00,,,0.00,WUHU216HW,2013-10-18 13:52:00,
2013-10-18 06:53:00,43.4,18.0,29.97,SW,225,1.8,3.8,36,0.00,,,0.00,WUHU216HW,2013-10-18 13:53:00,
2013-10-18 06:54:00,43.4,18.0,29.97,SW,225,1.8,3.8,36,0.00,,,0.00,WUHU216HW,2013-10-18 13:54:00,
2013-10-18 06:55:00,43.6,18.2,29.97,SW,225,2.5,3.8,36,0.00,,,0.00,WUHU216HW,2013-10-18 13:55:00,
2013-10-18 06:57:00,43.9,18.5,29.97,SW,225,3.4,3.4,36,0.00,,,0.00,WUHU216HW,2013-10-18 13:57:00,
2013-10-18 06:58:00,43.9,18.5,29.97,SW,225,2.2,3.4,36,0.00,,,0.00,WUHU216HW,2013-10-18 13:58:00,
2013-10-18 06:59:00,44.3,18.8,29.97,SW,225,2.5,3.4,36,0.00,,,0.00,WUHU216HW,2013-10-18 13:59:00,
2013-10-18 07:00:00,44.3,18.8,29.97,WSW,248,2.5,3.4,36,0.00,,,0.00,WUHU216HW,2013-10-18 14:00:00,
2013-10-18 07:02:00,44.6,18.5,29.97,SW,225,2.2,3.4,35,0.00,,,0.00,WUHU216HW,2013-10-18 14:02:00,
2013-10-18 07:03:00,44.8,18.6,29.97,SW,225,2.0,3.4,35,0.00,,,0.00,WUHU216HW,2013-10-18 14:03:00,
2013-10-18 07:04:00,45.0,18.8,29.97,SW,225,1.6,3.4,35,0.00,,,0.00,WUHU216HW,2013-10-18 14:04:00,
2013-10-18 07:05:00,45.2,18.9,29.97,WSW,248,1.3,3.4,35,0.00,,,0.00,WUHU216HW,2013-10-18 14:05:00,
2013-10-18 07:06:00,45.4,19.1,29.97,WSW,248,1.1,3.4,35,0.00,,,0.00,WUHU216HW,2013-10-18 14:06:00,
2013-10-18 07:07:00,45.5,19.3,29.97,WSW,248,1.1,3.4,35,0.00,,,0.00,WUHU216HW,2013-10-18 14:07:00,
2013-10-18 07:08:00,45.7,19.5,29.97,WSW,248,1.1,3.4,35,0.00,,,0.00,WUHU216HW,2013-10-18 14:08:00,
2013-10-18 07:09:00,45.9,19.6,29.97,WSW,248,1.1,3.4,35,0.00,,,0.00,WUHU216HW,2013-10-18 14:09:00,
2013-10-18 07:10:00,45.9,19.6,29.97,WSW,248,1.6,3.4,35,0.00,,,0.00,WUHU216HW,2013-10-18 14:10:00,
2013-10-18 07:11:00,46.3,19.9,29.97,WSW,248,1.1,2.5,35,0.00,,,0.00,WUHU216HW,2013-10-18 14:11:00,
2013-10-18 07:13:00,46.4,20.1,29.98,WSW,248,1.6,2.0,35,0.00,,,0.00,WUHU216HW,2013-10-18 14:13:00,
2013-10-18 07:15:00,46.8,20.4,29.98,WSW,248,1.6,2.2,35,0.00,,,0.00,WUHU216HW,2013-10-18 14:15:00,
2013-10-18 07:16:00,47.2,21.4,29.98,WSW,248,1.1,2.2,36,0.00,,,0.00,WUHU216HW,2013-10-18 14:16:00,
2013-10-18 07:18:00,47.3,20.9,29.98,SW,225,1.1,2.2,35,0.00,,,0.00,WUHU216HW,2013-10-18 14:18:00,
2013-10-18 07:19:00,47.5,21.1,29.98,WSW,248,0.4,2.2,35,0.00,,,0.00,WUHU216HW,2013-10-18 14:19:00,
2013-10-18 07:20:00,47.7,21.3,29.98,SW,225,0.7,2.2,35,0.00,,,0.00,WUHU216HW,2013-10-18 14:20:00,
2013-10-18 07:21:00,48.1,21.5,29.98,SW,225,0.7,2.2,35,0.00,,,0.00,WUHU216HW,2013-10-18 14:21:00,
2013-10-18 07:23:00,48.6,22.0,29.98,SW,225,0.4,2.2,35,0.00,,,0.00,WUHU216HW,2013-10-18 14:23:00,
2013-10-18 07:24:00,48.6,22.0,29.98,SW,225,0.9,2.2,35,0.00,,,0.00,WUHU216HW,2013-10-18 14:24:00,
2013-10-18 07:25:00,49.0,22.3,29.98,SW,225,1.1,1.3,35,0.00,,,0.00,WUHU216HW,2013-10-18 14:25:00,
2013-10-18 07:27:00,49.1,22.4,29.98,SW,225,1.1,1.1,35,0.00,,,0.00,WUHU216HW,2013-10-18 14:27:00,
2013-10-18 07:28:00,49.5,22.1,29.98,WSW,248,0.9,1.1,34,0.00,,,0.00,WUHU216HW,2013-10-18 14:28:00,
2013-10-18 07:29:00,49.7,22.2,29.98,SW,225,0.4,1.1,34,0.00,,,0.00,WUHU216HW,2013-10-18 14:29:00,
2013-10-18 07:30:00,50.0,22.5,29.98,SW,225,0.0,1.1,34,0.00,,,0.00,WUHU216HW,2013-10-18 14:30:00,
2013-10-18 07:32:00,50.2,22.7,29.98,SW,225,0.0,1.1,34,0.00,,,0.00,WUHU216HW,2013-10-18 14:32:00,
2013-10-18 07:33:00,50.6,23.1,29.98,WSW,248,0.0,1.1,34,0.00,,,0.00,WUHU216HW,2013-10-18 14:33:00,
2013-10-18 07:34:00,50.8,22.5,29.99,WSW,248,0.0,1.1,33,0.00,,,0.00,WUHU216HW,2013-10-18 14:34:00,
2013-10-18 07:35:00,50.8,23.2,29.99,WSW,248,0.0,1.1,34,0.00,,,0.00,WUHU216HW,2013-10-18 14:35:00,
2013-10-18 07:37:00,51.3,23.0,29.99,WSW,248,0.0,1.1,33,0.00,,,0.00,WUHU216HW,2013-10-18 14:37:00,
2013-10-18 07:38:00,51.5,23.1,29.98,WSW,248,0.0,0.7,33,0.00,,,0.00,WUHU216HW,2013-10-18 14:38:00,
2013-10-18 07:39:00,51.7,23.3,29.99,WSW,248,0.0,0.4,33,0.00,,,0.00,WUHU216HW,2013-10-18 14:39:00,
2013-10-18 07:40:00,51.8,23.5,29.99,WSW,248,0.0,0.0,33,0.00,,,0.00,WUHU216HW,2013-10-18 14:40:00,
2013-10-18 07:42:00,52.2,23.8,29.99,SE,135,0.0,0.0,33,0.00,,,0.00,WUHU216HW,2013-10-18 14:42:00,
2013-10-18 07:43:00,52.2,23.8,29.99,SE,135,0.0,0.0,33,0.00,,,0.00,WUHU216HW,2013-10-18 14:43:00,
2013-10-18 07:44:00,52.4,23.9,29.99,SE,135,0.4,0.4,33,0.00,,,0.00,WUHU216HW,2013-10-18 14:44:00,
2013-10-18 07:45:00,52.6,24.1,29.99,ESE,113,1.6,1.6,33,0.00,,,0.00,WUHU216HW,2013-10-18 14:45:00,
2013-10-18 07:46:00,52.7,24.3,29.99,ESE,113,1.1,1.6,33,0.00,,,0.00,WUHU216HW,2013-10-18 14:46:00,
2013-10-18 07:48:00,53.1,24.6,29.99,ESE,113,0.9,1.8,33,0.00,,,0.00,WUHU216HW,2013-10-18 14:48:00,
2013-10-18 07:49:00,53.1,24.0,29.99,ESE,113,0.7,1.8,32,0.00,,,0.00,WUHU216HW,2013-10-18 14:49:00,
2013-10-18 07:50:00,53.5,24.2,29.99,SE,135,0.9,1.8,32,0.00,,,0.00,WUHU216HW,2013-10-18 14:50:00,
2013-10-18 07:51:00,53.6,24.4,29.99,SE,135,1.3,1.8,32,0.00,,,0.00,WUHU216HW,2013-10-18 14:51:00,
2013-10-18 07:53:00,53.6,24.4,29.99,ESE,113,1.3,2.0,32,0.00,,,0.00,WUHU216HW,2013-10-18 14:53:00,
2013-10-18 07:54:00,54.0,24.0,29.99,ESE,113,2.0,2.0,31,0.00,,,0.00,WUHU216HW,2013-10-18 14:54:00,
2013-10-18 07:55:00,54.0,24.0,29.99,SE,135,1.3,2.0,31,0.00,,,0.00,WUHU216HW,2013-10-18 14:55:00,
2013-10-18 07:56:00,54.2,24.1,29.99,SE,135,0.4,2.0,31,0.00,,,0.00,WUHU216HW,2013-10-18 14:56:00,
2013-10-18 07:58:00,54.4,24.3,29.99,ESE,113,1.1,2.0,31,0.00,,,0.00,WUHU216HW,2013-10-18 14:58:00,
2013-10-18 07:59:00,54.5,24.5,29.99,ESE,113,1.1,2.0,31,0.00,,,0.00,WUHU216HW,2013-10-18 14:59:00,
2013-10-18 08:00:00,54.7,24.6,29.99,ESE,113,0.9,2.0,31,0.00,,,0.00,WUHU216HW,2013-10-18 15:00:00,
2013-10-18 08:01:00,54.9,24.8,29.99,ESE,113,1.3,2.0,31,0.00,,,0.00,WUHU216HW,2013-10-18 15:01:00,
2013-10-18 08:03:00,55.1,24.2,29.99,ESE,113,0.4,2.0,30,0.00,,,0.00,WUHU216HW,2013-10-18 15:03:00,
2013-10-18 08:04:00,55.1,24.2,29.99,SE,135,1.1,1.8,30,0.00,,,0.00,WUHU216HW,2013-10-18 15:04:00,
2013-10-18 08:05:00,55.4,24.5,29.99,SE,135,0.4,1.8,30,0.00,,,0.00,WUHU216HW,2013-10-18 15:05:00,
2013-10-18 08:06:00,55.4,24.5,29.99,SSE,158,0.7,1.8,30,0.00,,,0.00,WUHU216HW,2013-10-18 15:06:00,
2013-10-18 08:07:00,55.6,24.7,29.99,SSE,158,1.1,1.8,30,0.00,,,0.00,WUHU216HW,2013-10-18 15:07:00,
2013-10-18 08:08:00,55.8,24.9,29.99,South,180,0.4,1.8,30,0.00,,,0.00,WUHU216HW,2013-10-18 15:08:00,
2013-10-18 08:09:00,55.8,24.9,29.99,South,180,0.0,1.6,30,0.00,,,0.00,WUHU216HW,2013-10-18 15:09:00,
2013-10-18 08:10:00,56.0,24.0,29.99,ENE,68,1.1,1.6,29,0.00,,,0.00,WUHU216HW,2013-10-18 15:10:00,
2013-10-18 08:11:00,56.2,24.2,29.99,East,90,0.9,1.6,29,0.00,,,0.00,WUHU216HW,2013-10-18 15:11:00,
2013-10-18 08:12:00,56.2,24.2,29.99,East,90,0.9,1.6,29,0.00,,,0.00,WUHU216HW,2013-10-18 15:12:00,
2013-10-18 08:13:00,56.5,24.5,29.99,ENE,68,1.6,2.5,29,0.00,,,0.00,WUHU216HW,2013-10-18 15:13:00,
2013-10-18 08:14:00,56.5,24.5,29.99,East,90,1.1,2.5,29,0.00,,,0.00,WUHU216HW,2013-10-18 15:14:00,
2013-10-18 08:16:00,56.9,24.9,29.99,NE,45,0.2,2.5,29,0.00,,,0.00,WUHU216HW,2013-10-18 15:16:00,
2013-10-18 08:17:00,57.1,25.0,29.99,NNE,23,0.0,2.5,29,0.00,,,0.00,WUHU216HW,2013-10-18 15:17:00,
2013-10-18 08:18:00,57.2,24.2,30.00,NNE,23,0.0,2.5,28,0.00,,,0.00,WUHU216HW,2013-10-18 15:18:00,
2013-10-18 08:19:00,57.2,24.2,30.00,NNE,23,0.0,2.5,28,0.00,,,0.00,WUHU216HW,2013-10-18 15:19:00,
2013-10-18 08:21:00,57.6,24.5,30.00,NE,45,2.5,2.5,28,0.00,,,0.00,WUHU216HW,2013-10-18 15:21:00,
2013-10-18 08:22:00,57.6,24.5,30.00,NE,45,1.3,2.5,28,0.00,,,0.00,WUHU216HW,2013-10-18 15:22:00,
2013-10-18 08:23:00,58.0,24.9,30.00,NNW,338,0.7,2.5,28,0.00,,,0.00,WUHU216HW,2013-10-18 15:23:00,
2013-10-18 08:24:00,58.1,24.0,30.00,North,0,0.4,2.5,27,0.00,,,0.00,WUHU216HW,2013-10-18 15:24:00,
2013-10-18 08:26:00,58.3,24.2,30.00,NE,45,2.5,2.7,27,0.00,,,0.00,WUHU216HW,2013-10-18 15:26:00,
2013-10-18 08:27:00,58.5,24.3,30.00,North,0,1.3,2.7,27,0.00,,,0.00,WUHU216HW,2013-10-18 15:27:00,
2013-10-18 08:29:00,58.7,24.5,30.00,NNE,23,0.9,2.7,27,0.00,,,0.00,WUHU216HW,2013-10-18 15:29:00,
2013-10-18 08:30:00,58.9,24.7,30.00,East,90,1.3,2.7,27,0.00,,,0.00,WUHU216HW,2013-10-18 15:30:00,
2013-10-18 08:31:00,59.0,24.9,30.00,ENE,68,1.1,2.7,27,0.00,,,0.00,WUHU216HW,2013-10-18 15:31:00,
2013-10-18 08:32:00,59.2,24.9,30.00,NE,45,1.1,2.7,27,0.00,,,0.00,WUHU216HW,2013-10-18 15:32:00,
2013-10-18 08:34:00,59.4,23.1,30.00,ENE,68,2.0,3.8,25,0.00,,,0.00,WUHU216HW,2013-10-18 15:34:00,
2013-10-18 08:35:00,59.6,23.3,30.00,NE,45,3.4,3.8,25,0.00,,,0.00,WUHU216HW,2013-10-18 15:35:00,
2013-10-18 08:36:00,59.8,23.5,30.01,NE,45,2.7,3.8,25,0.00,,,0.00,WUHU216HW,2013-10-18 15:36:00,
2013-10-18 08:37:00,59.8,23.5,30.00,NNE,23,1.6,3.8,25,0.00,,,0.00,WUHU216HW,2013-10-18 15:37:00,
2013-10-18 08:39:00,60.1,23.8,30.00,NNE,23,3.8,3.8,25,0.00,,,0.00,WUHU216HW,2013-10-18 15:39:00,
2013-10-18 08:40:00,60.1,23.8,30.00,NNW,338,1.1,4.0,25,0.00,,,0.00,WUHU216HW,2013-10-18 15:40:00,
2013-10-18 08:41:00,60.1,23.8,30.00,North,0,1.8,4.0,25,0.00,,,0.00,WUHU216HW,2013-10-18 15:41:00,
2013-10-18 08:42:00,60.3,24.0,30.00,North,0,1.3,4.0,25,0.00,,,0.00,WUHU216HW,2013-10-18 15:42:00,
2013-10-18 08:43:00,60.5,24.1,30.00,NNE,23,1.8,4.0,25,0.00,,,0.00,WUHU216HW,2013-10-18 15:43:00,
2013-10-18 08:44:00,60.7,24.2,30.00,North,0,0.9,4.0,25,0.00,,,0.00,WUHU216HW,2013-10-18 15:44:00,
2013-10-18 08:45:00,60.8,23.4,30.00,North,0,0.9,4.0,24,0.00,,,0.00,WUHU216HW,2013-10-18 15:45:00,
2013-10-18 08:46:00,60.8,23.4,30.00,NNW,338,0.9,4.0,24,0.00,,,0.00,WUHU216HW,2013-10-18 15:46:00,
2013-10-18 08:47:00,60.8,23.4,30.00,NE,45,1.1,4.0,24,0.00,,,0.00,WUHU216HW,2013-10-18 15:47:00,
2013-10-18 08:48:00,60.8,23.4,30.00,NE,45,2.0,4.0,24,0.00,,,0.00,WUHU216HW,2013-10-18 15:48:00,
2013-10-18 08:49:00,61.0,23.6,30.00,North,0,0.4,4.0,24,0.00,,,0.00,WUHU216HW,2013-10-18 15:49:00,
2013-10-18 08:50:00,61.0,23.6,30.00,NE,45,1.1,2.9,24,0.00,,,0.00,WUHU216HW,2013-10-18 15:50:00,
2013-10-18 08:51:00,61.2,23.8,30.00,ENE,68,1.1,2.9,24,0.00,,,0.00,WUHU216HW,2013-10-18 15:51:00,
2013-10-18 08:52:00,61.4,23.9,30.00,NNE,23,2.2,2.9,24,0.00,,,0.00,WUHU216HW,2013-10-18 15:52:00,
2013-10-18 08:54:00,61.4,23.9,30.00,NE,45,0.7,2.9,24,0.00,,,0.00,WUHU216HW,2013-10-18 15:54:00,
2013-10-18 08:55:00,61.6,24.0,30.00,NE,45,0.9,2.9,24,0.00,,,0.00,WUHU216HW,2013-10-18 15:55:00,
2013-10-18 08:56:00,61.6,24.0,30.00,NNW,338,2.2,2.9,24,0.00,,,0.00,WUHU216HW,2013-10-18 15:56:00,
2013-10-18 08:57:00,61.6,24.0,30.00,NE,45,3.1,3.8,24,0.00,,,0.00,WUHU216HW,2013-10-18 15:57:00,
2013-10-18 08:58:00,61.7,24.2,30.00,NNE,23,0.4,3.8,24,0.00,,,0.00,WUHU216HW,2013-10-18 15:58:00,
2013-10-18 08:59:00,61.7,24.2,30.00,NE,45,4.0,4.0,24,0.00,,,0.00,WUHU216HW,2013-10-18 15:59:00,
2013-10-18 09:01:00,62.1,25.5,30.00,NNE,23,2.2,4.0,25,0.00,,,0.00,WUHU216HW,2013-10-18 16:01:00,
2013-10-18 09:02:00,62.1,25.5,30.00,NNE,23,3.4,4.0,25,0.00,,,0.00,WUHU216HW,2013-10-18 16:02:00,
2013-10-18 09:03:00,62.3,24.7,30.00,NNW,338,0.7,4.0,24,0.00,,,0.00,WUHU216HW,2013-10-18 16:03:00,
2013-10-18 09:05:00,62.3,24.7,30.00,NE,45,2.2,4.0,24,0.00,,,0.00,WUHU216HW,2013-10-18 16:05:00,
2013-10-18 09:06:00,62.3,24.7,30.00,ENE,68,2.2,4.0,24,0.00,,,0.00,WUHU216HW,2013-10-18 16:06:00,
2013-10-18 09:08:00,62.3,24.7,30.00,ENE,68,3.4,4.9,24,0.00,,,0.00,WUHU216HW,2013-10-18 16:08:00,
2013-10-18 09:10:00,62.6,24.9,30.00,ESE,113,1.1,4.9,24,0.00,,,0.00,WUHU216HW,2013-10-18 16:10:00,
2013-10-18 09:11:00,62.6,24.9,30.00,NNE,23,3.4,4.9,24,0.00,,,0.00,WUHU216HW,2013-10-18 16:11:00,
2013-10-18 09:13:00,62.6,24.9,30.00,NE,45,3.4,4.9,24,0.00,,,0.00,WUHU216HW,2013-10-18 16:13:00,
2013-10-18 09:15:00,62.8,25.1,30.00,NNE,23,1.8,4.9,24,0.00,,,0.00,WUHU216HW,2013-10-18 16:15:00,
2013-10-18 09:16:00,63.0,25.3,30.00,ENE,68,2.9,4.9,24,0.00,,,0.00,WUHU216HW,2013-10-18 16:16:00,
2013-10-18 09:18:00,63.0,25.3,30.00,NNE,23,1.6,4.0,24,0.00,,,0.00,WUHU216HW,2013-10-18 16:18:00,
2013-10-18 09:19:00,63.0,25.3,30.00,East,90,1.3,4.0,24,0.00,,,0.00,WUHU216HW,2013-10-18 16:19:00,
2013-10-18 09:20:00,63.2,25.4,30.00,ENE,68,1.1,4.0,24,0.00,,,0.00,WUHU216HW,2013-10-18 16:20:00,
2013-10-18 09:21:00,63.4,25.6,30.00,North,0,0.4,4.0,24,0.00,,,0.00,WUHU216HW,2013-10-18 16:21:00,
2013-10-18 09:23:00,63.4,25.6,30.00,East,90,2.7,4.0,24,0.00,,,0.00,WUHU216HW,2013-10-18 16:23:00,
2013-10-18 09:24:00,63.4,25.6,30.00,ESE,113,1.3,4.0,24,0.00,,,0.00,WUHU216HW,2013-10-18 16:24:00,
2013-10-18 09:25:00,63.5,25.8,30.00,ENE,68,3.4,3.8,24,0.00,,,0.00,WUHU216HW,2013-10-18 16:25:00,
2013-10-18 09:26:00,63.7,25.8,30.00,NE,45,2.5,4.5,24,0.00,,,0.00,WUHU216HW,2013-10-18 16:26:00,
2013-10-18 09:28:00,63.7,25.8,30.00,ENE,68,1.3,4.5,24,0.00,,,0.00,WUHU216HW,2013-10-18 16:28:00,
2013-10-18 09:29:00,63.7,25.8,30.00,NNE,23,2.5,4.5,24,0.00,,,0.00,WUHU216HW,2013-10-18 16:29:00,
2013-10-18 09:30:00,63.9,26.0,30.00,ENE,68,1.1,4.5,24,0.00,,,0.00,WUHU216HW,2013-10-18 16:30:00,
2013-10-18 09:32:00,64.1,25.2,30.00,NNE,23,4.9,5.4,23,0.00,,,0.00,WUHU216HW,2013-10-18 16:32:00,
2013-10-18 09:33:00,64.1,25.2,30.00,North,0,1.6,5.4,23,0.00,,,0.00,WUHU216HW,2013-10-18 16:33:00,
2013-10-18 09:34:00,64.3,25.3,30.00,NNW,338,1.3,5.4,23,0.00,,,0.00,WUHU216HW,2013-10-18 16:34:00,
2013-10-18 09:35:00,64.3,25.3,30.00,NNE,23,3.1,5.4,23,0.00,,,0.00,WUHU216HW,2013-10-18 16:35:00,
2013-10-18 09:37:00,64.3,25.3,30.00,NE,45,0.7,5.4,23,0.00,,,0.00,WUHU216HW,2013-10-18 16:37:00,
2013-10-18 09:39:00,64.4,25.5,30.00,East,90,3.1,5.4,23,0.00,,,0.00,WUHU216HW,2013-10-18 16:39:00,
2013-10-18 09:40:00,64.4,25.5,30.00,NE,45,6.0,6.3,23,0.00,,,0.00,WUHU216HW,2013-10-18 16:40:00,
2013-10-18 09:41:00,64.4,25.5,30.00,ENE,68,3.6,6.3,23,0.00,,,0.00,WUHU216HW,2013-10-18 16:41:00,
2013-10-18 09:42:00,64.4,25.5,30.00,ENE,68,2.5,6.3,23,0.00,,,0.00,WUHU216HW,2013-10-18 16:42:00,
2013-10-18 09:44:00,64.4,25.5,30.00,North,0,1.8,6.3,23,0.00,,,0.00,WUHU216HW,2013-10-18 16:44:00,
2013-10-18 09:45:00,64.6,24.7,30.00,NE,45,5.6,6.7,22,0.00,,,0.00,WUHU216HW,2013-10-18 16:45:00,
2013-10-18 09:46:00,64.6,24.7,30.00,NE,45,5.4,6.7,22,0.00,,,0.00,WUHU216HW,2013-10-18 16:46:00,
2013-10-18 09:47:00,64.6,24.7,30.00,North,0,5.6,6.7,22,0.00,,,0.00,WUHU216HW,2013-10-18 16:47:00,
2013-10-18 09:48:00,64.8,24.8,30.00,North,0,4.0,6.7,22,0.00,,,0.00,WUHU216HW,2013-10-18 16:48:00,
2013-10-18 09:49:00,64.8,24.8,30.00,NE,45,4.5,6.7,22,0.00,,,0.00,WUHU216HW,2013-10-18 16:49:00,
2013-10-18 09:50:00,64.8,24.8,30.00,NNW,338,2.7,6.7,22,0.00,,,0.00,WUHU216HW,2013-10-18 16:50:00,
2013-10-18 09:51:00,65.0,24.9,30.00,NW,315,2.5,6.7,22,0.00,,,0.00,WUHU216HW,2013-10-18 16:51:00,
2013-10-18 09:52:00,65.0,24.0,30.00,NNW,338,1.8,6.7,21,0.00,,,0.00,WUHU216HW,2013-10-18 16:52:00,
2013-10-18 09:53:00,65.0,24.0,30.00,NNE,23,3.6,6.7,21,0.00,,,0.00,WUHU216HW,2013-10-18 16:53:00,
2013-10-18 09:54:00,65.0,24.9,30.00,NE,45,4.7,6.7,22,0.00,,,0.00,WUHU216HW,2013-10-18 16:54:00,
2013-10-18 09:55:00,65.0,24.9,30.00,ENE,68,2.5,6.7,22,0.00,,,0.00,WUHU216HW,2013-10-18 16:55:00,
2013-10-18 09:56:00,65.2,25.1,30.00,ESE,113,1.8,6.5,22,0.00,,,0.00,WUHU216HW,2013-10-18 16:56:00,
2013-10-18 09:57:00,65.2,25.1,30.00,NNE,23,0.9,6.5,22,0.00,,,0.00,WUHU216HW,2013-10-18 16:57:00,
2013-10-18 09:58:00,65.2,25.1,30.00,NNE,23,3.6,6.0,22,0.00,,,0.00,WUHU216HW,2013-10-18 16:58:00,
2013-10-18 09:59:00,65.2,25.1,30.00,NNE,23,4.7,6.0,22,0.00,,,0.00,WUHU216HW,2013-10-18 16:59:00,
2013-10-18 10:01:00,65.3,25.2,30.00,NE,45,5.4,7.4,22,0.00,,,0.00,WUHU216HW,2013-10-18 17:01:00,
2013-10-18 10:02:00,65.5,25.4,30.00,North,0,3.4,7.4,22,0.00,,,0.00,WUHU216HW,2013-10-18 17:02:00,
2013-10-18 10:03:00,65.5,24.4,30.00,NNE,23,2.2,7.4,21,0.00,,,0.00,WUHU216HW,2013-10-18 17:03:00,
2013-10-18 10:04:00,65.5,24.4,30.00,NNE,23,2.5,7.4,21,0.00,,,0.00,WUHU216HW,2013-10-18 17:04:00,
2013-10-18 10:06:00,65.5,24.4,30.00,North,0,1.8,7.4,21,0.00,,,0.00,WUHU216HW,2013-10-18 17:06:00,
2013-10-18 10:07:00,65.5,24.4,30.00,NW,315,0.9,7.4,21,0.00,,,0.00,WUHU216HW,2013-10-18 17:07:00,
2013-10-18 10:08:00,65.7,24.5,30.00,NE,45,4.9,7.4,21,0.00,,,0.00,WUHU216HW,2013-10-18 17:08:00,
2013-10-18 10:09:00,65.9,24.7,30.00,NE,45,4.0,7.4,21,0.00,,,0.00,WUHU216HW,2013-10-18 17:09:00,
2013-10-18 10:11:00,65.9,24.7,30.00,North,0,3.4,6.3,21,0.00,,,0.00,WUHU216HW,2013-10-18 17:11:00,
2013-10-18 10:12:00,65.9,24.7,30.00,NNW,338,2.5,6.3,21,0.00,,,0.00,WUHU216HW,2013-10-18 17:12:00,
2013-10-18 10:13:00,65.9,24.7,30.00,NNE,23,4.0,6.7,21,0.00,,,0.00,WUHU216HW,2013-10-18 17:13:00,
2013-10-18 10:14:00,65.9,24.7,30.00,NNE,23,7.2,7.2,21,0.00,,,0.00,WUHU216HW,2013-10-18 17:14:00,
2013-10-18 10:17:00,66.1,22.2,30.00,NE,45,4.7,7.2,19,0.00,,,0.00,WUHU216HW,2013-10-18 17:17:00,
2013-10-18 10:19:00,66.2,22.3,30.00,NNW,338,4.7,7.4,19,0.00,,,0.00,WUHU216HW,2013-10-18 17:19:00,
2013-10-18 10:20:00,66.2,22.3,30.00,WNW,293,3.8,7.4,19,0.00,,,0.00,WUHU216HW,2013-10-18 17:20:00,
2013-10-18 10:22:00,66.2,22.3,30.00,NNE,23,2.5,9.2,19,0.00,,,0.00,WUHU216HW,2013-10-18 17:22:00,
2013-10-18 10:23:00,66.4,22.5,30.00,NNE,23,3.4,9.2,19,0.00,,,0.00,WUHU216HW,2013-10-18 17:23:00,
2013-10-18 10:24:00,66.4,24.1,30.00,NE,45,1.8,9.2,20,0.00,,,0.00,WUHU216HW,2013-10-18 17:24:00,
2013-10-18 10:25:00,66.4,24.1,30.00,NNE,23,3.6,9.2,20,0.00,,,0.00,WUHU216HW,2013-10-18 17:25:00,
2013-10-18 10:27:00,66.6,24.3,30.00,NNE,23,4.0,9.2,20,0.00,,,0.00,WUHU216HW,2013-10-18 17:27:00,
2013-10-18 10:28:00,66.6,24.3,30.00,NNE,23,4.0,9.2,20,0.00,,,0.00,WUHU216HW,2013-10-18 17:28:00,
2013-10-18 10:30:00,66.6,24.3,30.00,NW,315,2.0,9.2,20,0.00,,,0.00,WUHU216HW,2013-10-18 17:30:00,
2013-10-18 10:31:00,66.6,22.7,30.00,NE,45,3.1,9.2,19,0.00,,,0.00,WUHU216HW,2013-10-18 17:31:00,
2013-10-18 10:33:00,66.8,21.2,30.00,NNW,338,4.0,7.2,18,0.00,,,0.00,WUHU216HW,2013-10-18 17:33:00,
2013-10-18 10:35:00,67.0,21.4,30.00,NNE,23,5.6,7.2,18,0.00,,,0.00,WUHU216HW,2013-10-18 17:35:00,
2013-10-18 10:36:00,67.0,23.1,30.00,NE,45,5.6,7.2,19,0.00,,,0.00,WUHU216HW,2013-10-18 17:36:00,
2013-10-18 10:38:00,67.1,21.6,30.00,NW,315,2.5,6.5,18,0.00,,,0.00,WUHU216HW,2013-10-18 17:38:00,
2013-10-18 10:39:00,67.1,20.0,30.00,NNW,338,2.9,6.5,17,0.00,,,0.00,WUHU216HW,2013-10-18 17:39:00,
2013-10-18 10:40:00,67.1,21.6,30.00,North,0,4.0,6.5,18,0.00,,,0.00,WUHU216HW,2013-10-18 17:40:00,
2013-10-18 10:41:00,67.1,20.0,30.00,NW,315,3.8,6.5,17,0.00,,,0.00,WUHU216HW,2013-10-18 17:41:00,
2013-10-18 10:42:00,67.1,20.0,30.00,North,0,2.9,6.5,17,0.00,,,0.00,WUHU216HW,2013-10-18 17:42:00,
2013-10-18 10:43:00,67.0,21.4,30.00,North,0,2.7,6.5,18,0.00,,,0.00,WUHU216HW,2013-10-18 17:43:00,
2013-10-18 10:44:00,67.1,21.6,30.00,NE,45,3.1,6.5,18,0.00,,,0.00,WUHU216HW,2013-10-18 17:44:00,
2013-10-18 10:45:00,67.3,21.7,30.00,North,0,2.0,6.3,18,0.00,,,0.00,WUHU216HW,2013-10-18 17:45:00,
2013-10-18 10:46:00,67.3,21.7,30.00,North,0,5.1,5.6,18,0.00,,,0.00,WUHU216HW,2013-10-18 17:46:00,
2013-10-18 10:47:00,67.3,20.2,30.00,NNW,338,2.7,5.8,17,0.00,,,0.00,WUHU216HW,2013-10-18 17:47:00,
2013-10-18 10:48:00,67.5,20.3,29.99,NW,315,2.7,5.8,17,0.00,,,0.00,WUHU216HW,2013-10-18 17:48:00,
2013-10-18 10:49:00,67.5,20.3,30.00,North,0,1.8,5.8,17,0.00,,,0.00,WUHU216HW,2013-10-18 17:49:00,
2013-10-18 10:50:00,67.3,21.7,29.99,NE,45,0.0,5.8,18,0.00,,,0.00,WUHU216HW,2013-10-18 17:50:00,
2013-10-18 10:52:00,67.5,20.3,30.00,NNE,23,4.0,5.8,17,0.00,,,0.00,WUHU216HW,2013-10-18 17:52:00,
2013-10-18 10:53:00,67.5,21.9,30.00,North,0,3.6,5.8,18,0.00,,,0.00,WUHU216HW,2013-10-18 17:53:00,
2013-10-18 10:54:00,67.5,20.3,29.99,NNE,23,2.5,5.8,17,0.00,,,0.00,WUHU216HW,2013-10-18 17:54:00,
2013-10-18 10:55:00,67.7,22.1,30.00,North,0,3.1,5.8,18,0.00,,,0.00,WUHU216HW,2013-10-18 17:55:00,
2013-10-18 10:56:00,67.9,20.6,30.00,North,0,3.1,5.8,17,0.00,,,0.00,WUHU216HW,2013-10-18 17:56:00,
2013-10-18 10:57:00,67.9,20.6,29.99,NW,315,2.7,4.7,17,0.00,,,0.00,WUHU216HW,2013-10-18 17:57:00,
2013-10-18 10:58:00,68.0,19.2,30.00,NNW,338,2.5,4.7,16,0.00,,,0.00,WUHU216HW,2013-10-18 17:58:00,
2013-10-18 11:00:00,68.0,20.8,29.99,ENE,68,4.7,4.7,17,0.00,,,0.00,WUHU216HW,2013-10-18 18:00:00,
2013-10-18 11:01:00,68.0,20.8,29.99,NNE,23,4.5,4.7,17,0.00,,,0.00,WUHU216HW,2013-10-18 18:01:00,
2013-10-18 11:03:00,68.2,19.3,29.99,ENE,68,0.9,5.8,16,0.00,,,0.00,WUHU216HW,2013-10-18 18:03:00,
2013-10-18 11:06:00,68.4,19.5,29.99,NE,45,5.6,5.8,16,0.00,,,0.00,WUHU216HW,2013-10-18 18:06:00,
2013-10-18 11:08:00,68.6,19.5,29.99,NW,315,2.9,5.8,16,0.00,,,0.00,WUHU216HW,2013-10-18 18:08:00,
2013-10-18 11:09:00,68.6,19.5,29.99,West,270,1.1,6.9,16,0.00,,,0.00,WUHU216HW,2013-10-18 18:09:00,
2013-10-18 11:11:00,68.6,19.5,29.99,North,0,0.2,6.9,16,0.00,,,0.00,WUHU216HW,2013-10-18 18:11:00,
2013-10-18 11:13:00,68.8,21.3,29.99,NE,45,2.9,6.9,17,0.00,,,0.00,WUHU216HW,2013-10-18 18:13:00,
2013-10-18 11:14:00,68.8,21.3,29.99,NNE,23,2.5,6.9,17,0.00,,,0.00,WUHU216HW,2013-10-18 18:14:00,
2013-10-18 11:15:00,68.8,21.3,29.99,NE,45,1.8,6.9,17,0.00,,,0.00,WUHU216HW,2013-10-18 18:15:00,
2013-10-18 11:16:00,68.8,21.3,29.99,NE,45,3.4,6.9,17,0.00,,,0.00,WUHU216HW,2013-10-18 18:16:00,
2013-10-18 11:19:00,68.9,18.3,29.99,NW,315,3.1,6.5,15,0.00,,,0.00,WUHU216HW,2013-10-18 18:19:00,
2013-10-18 11:20:00,68.9,18.3,29.99,NW,315,4.5,6.5,15,0.00,,,0.00,WUHU216HW,2013-10-18 18:20:00,
2013-10-18 11:21:00,68.9,18.3,29.99,NW,315,3.1,6.5,15,0.00,,,0.00,WUHU216HW,2013-10-18 18:21:00,
2013-10-18 11:22:00,68.9,18.3,29.99,NW,315,3.1,6.5,15,0.00,,,0.00,WUHU216HW,2013-10-18 18:22:00,
2013-10-18 11:24:00,68.9,18.3,29.99,NNW,338,1.8,6.5,15,0.00,,,0.00,WUHU216HW,2013-10-18 18:24:00,
2013-10-18 11:25:00,68.9,18.3,29.99,WNW,293,4.0,6.5,15,0.00,,,0.00,WUHU216HW,2013-10-18 18:25:00,
2013-10-18 11:27:00,68.9,18.3,29.99,West,270,5.4,6.5,15,0.00,,,0.00,WUHU216HW,2013-10-18 18:27:00,
2013-10-18 11:30:00,69.1,20.0,29.99,WSW,248,2.2,7.6,16,0.00,,,0.00,WUHU216HW,2013-10-18 18:30:00,
2013-10-18 11:32:00,69.5,20.3,29.99,NNE,23,2.2,7.6,16,0.00,,,0.00,WUHU216HW,2013-10-18 18:32:00,
2013-10-18 11:33:00,69.5,20.3,29.99,WSW,248,1.6,7.6,16,0.00,,,0.00,WUHU216HW,2013-10-18 18:33:00,
2013-10-18 11:35:00,69.7,20.3,29.99,North,0,4.0,7.6,16,0.00,,,0.00,WUHU216HW,2013-10-18 18:35:00,
2013-10-18 11:37:00,69.8,20.5,29.98,West,270,3.1,7.6,16,0.00,,,0.00,WUHU216HW,2013-10-18 18:37:00,
2013-10-18 11:38:00,69.8,20.5,29.98,WSW,248,1.8,5.4,16,0.00,,,0.00,WUHU216HW,2013-10-18 18:38:00,
2013-10-18 11:40:00,70.0,20.7,29.98,NW,315,3.4,6.0,16,0.00,,,0.00,WUHU216HW,2013-10-18 18:40:00,
2013-10-18 11:41:00,70.0,20.7,29.98,WNW,293,2.2,6.0,16,0.00,,,0.00,WUHU216HW,2013-10-18 18:41:00,
2013-10-18 11:42:00,70.0,20.7,29.98,WNW,293,2.2,6.0,16,0.00,,,0.00,WUHU216HW,2013-10-18 18:42:00,
2013-10-18 11:43:00,70.0,20.7,29.98,NNE,23,1.1,6.0,16,0.00,,,0.00,WUHU216HW,2013-10-18 18:43:00,
2013-10-18 11:45:00,70.0,20.7,29.98,NNW,338,3.1,6.0,16,0.00,,,0.00,WUHU216HW,2013-10-18 18:45:00,
2013-10-18 11:46:00,70.0,20.7,29.98,North,0,3.4,6.0,16,0.00,,,0.00,WUHU216HW,2013-10-18 18:46:00,
2013-10-18 11:47:00,70.0,20.7,29.98,North,0,3.4,6.0,16,0.00,,,0.00,WUHU216HW,2013-10-18 18:47:00,
2013-10-18 11:48:00,70.0,20.7,29.98,North,0,4.3,7.2,16,0.00,,,0.00,WUHU216HW,2013-10-18 18:48:00,
2013-10-18 11:50:00,70.2,22.4,29.98,NE,45,4.0,7.2,17,0.00,,,0.00,WUHU216HW,2013-10-18 18:50:00,
2013-10-18 11:51:00,70.2,22.4,29.98,NNE,23,6.9,7.2,17,0.00,,,0.00,WUHU216HW,2013-10-18 18:51:00,
2013-10-18 11:52:00,70.2,22.4,29.98,NNE,23,8.7,8.7,17,0.00,,,0.00,WUHU216HW,2013-10-18 18:52:00,
2013-10-18 11:54:00,70.4,22.6,29.98,North,0,1.3,8.7,17,0.00,,,0.00,WUHU216HW,2013-10-18 18:54:00,
2013-10-18 11:56:00,70.6,19.4,29.98,NNW,338,3.4,8.7,15,0.00,,,0.00,WUHU216HW,2013-10-18 18:56:00,
2013-10-18 11:57:00,70.6,19.4,29.98,NNW,338,2.5,8.7,15,0.00,,,0.00,WUHU216HW,2013-10-18 18:57:00,
2013-10-18 11:59:00,70.6,21.1,29.98,NNW,338,2.5,8.7,16,0.00,,,0.00,WUHU216HW,2013-10-18 18:59:00,
2013-10-18 12:01:00,70.6,21.1,29.98,NW,315,4.9,8.7,16,0.00,,,0.00,WUHU216HW,2013-10-18 19:01:00,
2013-10-18 12:02:00,70.6,21.1,29.98,North,0,7.6,7.6,16,0.00,,,0.00,WUHU216HW,2013-10-18 19:02:00,
2013-10-18 12:03:00,70.6,21.1,29.98,NNE,23,7.4,7.6,16,0.00,,,0.00,WUHU216HW,2013-10-18 19:03:00,
2013-10-18 12:04:00,70.6,21.1,29.97,NW,315,2.9,7.6,16,0.00,,,0.00,WUHU216HW,2013-10-18 19:04:00,
2013-10-18 12:06:00,70.7,21.2,29.97,NNW,338,7.2,12.8,16,0.00,,,0.00,WUHU216HW,2013-10-18 19:06:00,
2013-10-18 12:07:00,70.9,21.4,29.98,NE,45,2.2,12.8,16,0.00,,,0.00,WUHU216HW,2013-10-18 19:07:00,
2013-10-18 12:08:00,70.9,21.4,29.98,NE,45,2.2,12.8,16,0.00,,,0.00,WUHU216HW,2013-10-18 19:08:00,
2013-10-18 12:09:00,70.9,21.4,29.97,North,0,4.0,12.8,16,0.00,,,0.00,WUHU216HW,2013-10-18 19:09:00,
2013-10-18 12:11:00,71.1,21.5,29.97,NW,315,4.3,12.8,16,0.00,,,0.00,WUHU216HW,2013-10-18 19:11:00,
2013-10-18 12:13:00,71.3,20.1,29.97,NNW,338,4.3,12.8,15,0.00,,,0.00,WUHU216HW,2013-10-18 19:13:00,
2013-10-18 12:14:00,71.1,19.9,29.97,West,270,5.1,12.8,15,0.00,,,0.00,WUHU216HW,2013-10-18 19:14:00,
2013-10-18 12:16:00,71.3,20.1,29.97,WNW,293,1.8,10.1,15,0.00,,,0.00,WUHU216HW,2013-10-18 19:16:00,
2013-10-18 12:18:00,71.3,20.1,29.97,North,0,2.0,10.1,15,0.00,,,0.00,WUHU216HW,2013-10-18 19:18:00,
2013-10-18 12:19:00,71.3,20.1,29.97,North,0,2.5,10.1,15,0.00,,,0.00,WUHU216HW,2013-10-18 19:19:00,
2013-10-18 12:22:00,71.5,20.2,29.97,NW,315,4.0,10.1,15,0.00,,,0.00,WUHU216HW,2013-10-18 19:22:00,
2013-10-18 12:23:00,71.6,20.3,29.97,North,0,3.6,5.4,15,0.00,,,0.00,WUHU216HW,2013-10-18 19:23:00,
2013-10-18 12:24:00,71.5,20.2,29.97,NE,45,1.8,5.4,15,0.00,,,0.00,WUHU216HW,2013-10-18 19:24:00,
2013-10-18 12:27:00,71.5,20.2,29.97,NNW,338,5.4,5.4,15,0.00,,,0.00,WUHU216HW,2013-10-18 19:27:00,
2013-10-18 12:28:00,71.5,20.2,29.97,NW,315,4.5,6.5,15,0.00,,,0.00,WUHU216HW,2013-10-18 19:28:00,
2013-10-18 12:29:00,71.6,20.3,29.97,NE,45,1.8,6.5,15,0.00,,,0.00,WUHU216HW,2013-10-18 19:29:00,
2013-10-18 12:32:00,71.8,20.5,29.97,NW,315,3.6,6.5,15,0.00,,,0.00,WUHU216HW,2013-10-18 19:32:00,
2013-10-18 12:33:00,72.0,20.6,29.97,WSW,248,2.7,6.5,15,0.00,,,0.00,WUHU216HW,2013-10-18 19:33:00,
2013-10-18 12:34:00,72.0,20.6,29.97,NNW,338,3.8,6.5,15,0.00,,,0.00,WUHU216HW,2013-10-18 19:34:00,
2013-10-18 12:37:00,72.0,20.6,29.97,NE,45,3.4,6.5,15,0.00,,,0.00,WUHU216HW,2013-10-18 19:37:00,
2013-10-18 12:39:00,72.2,20.8,29.96,North,0,6.3,6.9,15,0.00,,,0.00,WUHU216HW,2013-10-18 19:39:00,
2013-10-18 12:42:00,72.4,21.0,29.96,West,270,3.4,6.9,15,0.00,,,0.00,WUHU216HW,2013-10-18 19:42:00,
2013-10-18 12:44:00,72.4,21.0,29.96,WSW,248,1.8,6.9,15,0.00,,,0.00,WUHU216HW,2013-10-18 19:44:00,
2013-10-18 12:45:00,72.5,21.1,29.96,WSW,248,1.1,6.9,15,0.00,,,0.00,WUHU216HW,2013-10-18 19:45:00,
2013-10-18 12:48:00,72.7,18.0,29.96,NW,315,4.7,6.3,13,0.00,,,0.00,WUHU216HW,2013-10-18 19:48:00,
2013-10-18 12:49:00,72.7,18.0,29.96,NW,315,4.9,5.4,13,0.00,,,0.00,WUHU216HW,2013-10-18 19:49:00,
2013-10-18 12:50:00,72.7,18.0,29.96,NNW,338,3.1,5.4,13,0.00,,,0.00,WUHU216HW,2013-10-18 19:50:00,
2013-10-18 12:51:00,72.7,18.0,29.96,WSW,248,1.1,5.4,13,0.00,,,0.00,WUHU216HW,2013-10-18 19:51:00,
2013-10-18 12:53:00,72.7,18.0,29.96,NNW,338,7.2,7.6,13,0.00,,,0.00,WUHU216HW,2013-10-18 19:53:00,
2013-10-18 12:54:00,72.7,18.0,29.96,WNW,293,0.9,7.6,13,0.00,,,0.00,WUHU216HW,2013-10-18 19:54:00,
2013-10-18 12:55:00,72.7,18.0,29.96,West,270,0.9,7.6,13,0.00,,,0.00,WUHU216HW,2013-10-18 19:55:00,
2013-10-18 12:56:00,72.7,18.0,29.96,NNE,23,0.9,7.6,13,0.00,,,0.00,WUHU216HW,2013-10-18 19:56:00,
2013-10-18 12:58:00,72.7,18.0,29.96,NE,45,1.3,7.6,13,0.00,,,0.00,WUHU216HW,2013-10-18 19:58:00,
2013-10-18 12:59:00,72.7,18.0,29.96,NE,45,2.5,7.6,13,0.00,,,0.00,WUHU216HW,2013-10-18 19:59:00,
2013-10-18 13:00:00,72.7,21.2,29.96,NE,45,5.1,7.6,15,0.00,,,0.00,WUHU216HW,2013-10-18 20:00:00,
2013-10-18 13:01:00,72.9,19.8,29.96,NNE,23,3.4,7.6,14,0.00,,,0.00,WUHU216HW,2013-10-18 20:01:00,
2013-10-18 13:04:00,73.1,21.6,29.95,North,0,3.6,6.9,15,0.00,,,0.00,WUHU216HW,2013-10-18 20:04:00,
2013-10-18 13:05:00,73.1,21.6,29.95,NE,45,4.3,6.9,15,0.00,,,0.00,WUHU216HW,2013-10-18 20:05:00,
2013-10-18 13:06:00,73.1,21.6,29.95,NNE,23,2.7,6.9,15,0.00,,,0.00,WUHU216HW,2013-10-18 20:06:00,
2013-10-18 13:09:00,73.3,21.7,29.95,North,0,2.5,6.9,15,0.00,,,0.00,WUHU216HW,2013-10-18 20:09:00,
2013-10-18 13:10:00,73.4,21.9,29.95,NE,45,5.6,6.9,15,0.00,,,0.00,WUHU216HW,2013-10-18 20:10:00,
2013-10-18 13:11:00,73.4,18.6,29.95,NE,45,5.4,7.2,13,0.00,,,0.00,WUHU216HW,2013-10-18 20:11:00,
2013-10-18 13:14:00,73.8,22.1,29.95,ENE,68,5.4,7.2,15,0.00,,,0.00,WUHU216HW,2013-10-18 20:14:00,
2013-10-18 13:15:00,73.8,22.1,29.95,ENE,68,4.5,7.2,15,0.00,,,0.00,WUHU216HW,2013-10-18 20:15:00,
2013-10-18 13:16:00,73.8,22.1,29.95,NE,45,2.9,7.2,15,0.00,,,0.00,WUHU216HW,2013-10-18 20:16:00,
2013-10-18 13:19:00,74.2,22.4,29.95,NE,45,4.7,7.2,15,0.00,,,0.00,WUHU216HW,2013-10-18 20:19:00,
2013-10-18 13:20:00,74.2,22.4,29.95,ENE,68,4.9,7.2,15,0.00,,,0.00,WUHU216HW,2013-10-18 20:20:00,
2013-10-18 13:21:00,74.2,22.4,29.95,North,0,5.4,7.2,15,0.00,,,0.00,WUHU216HW,2013-10-18 20:21:00,
2013-10-18 13:22:00,74.3,22.5,29.95,North,0,2.0,6.3,15,0.00,,,0.00,WUHU216HW,2013-10-18 20:22:00,
2013-10-18 13:24:00,74.3,19.3,29.95,NW,315,2.7,6.3,13,0.00,,,0.00,WUHU216HW,2013-10-18 20:24:00,
2013-10-18 13:26:00,74.2,19.1,29.95,NE,45,4.0,6.3,13,0.00,,,0.00,WUHU216HW,2013-10-18 20:26:00,
2013-10-18 13:27:00,74.2,19.1,29.95,NW,315,2.5,6.3,13,0.00,,,0.00,WUHU216HW,2013-10-18 20:27:00,
2013-10-18 13:29:00,74.2,22.4,29.95,WNW,293,2.0,5.4,15,0.00,,,0.00,WUHU216HW,2013-10-18 20:29:00,
2013-10-18 13:30:00,74.2,20.8,29.95,NW,315,4.3,5.4,14,0.00,,,0.00,WUHU216HW,2013-10-18 20:30:00,
2013-10-18 13:31:00,74.2,19.1,29.95,NNW,338,3.8,4.5,13,0.00,,,0.00,WUHU216HW,2013-10-18 20:31:00,
2013-10-18 13:32:00,74.2,19.1,29.94,ENE,68,2.0,4.5,13,0.00,,,0.00,WUHU216HW,2013-10-18 20:32:00,
2013-10-18 13:35:00,74.2,19.1,29.94,North,0,3.6,4.5,13,0.00,,,0.00,WUHU216HW,2013-10-18 20:35:00,
2013-10-18 13:36:00,74.2,19.1,29.94,NE,45,4.0,6.3,13,0.00,,,0.00,WUHU216HW,2013-10-18 20:36:00,
2013-10-18 13:37:00,74.0,19.0,29.94,NE,45,0.9,6.3,13,0.00,,,0.00,WUHU216HW,2013-10-18 20:37:00,
2013-10-18 13:40:00,74.2,22.4,29.94,NW,315,1.3,6.3,15,0.00,,,0.00,WUHU216HW,2013-10-18 20:40:00,
2013-10-18 13:42:00,74.2,19.1,29.94,North,0,2.2,6.3,13,0.00,,,0.00,WUHU216HW,2013-10-18 20:42:00,
2013-10-18 13:45:00,74.5,19.4,29.94,NNW,338,7.2,7.2,13,0.00,,,0.00,WUHU216HW,2013-10-18 20:45:00,
2013-10-18 13:47:00,74.3,19.3,29.94,NNE,23,8.3,8.3,13,0.00,,,0.00,WUHU216HW,2013-10-18 20:47:00,
2013-10-18 13:48:00,74.5,19.4,29.94,NE,45,8.5,8.5,13,0.00,,,0.00,WUHU216HW,2013-10-18 20:48:00,
2013-10-18 13:51:00,74.3,19.3,29.94,NW,315,3.4,8.5,13,0.00,,,0.00,WUHU216HW,2013-10-18 20:51:00,
2013-10-18 13:52:00,74.3,19.3,29.94,ENE,68,2.7,8.5,13,0.00,,,0.00,WUHU216HW,2013-10-18 20:52:00,
2013-10-18 13:53:00,74.3,19.3,29.94,NNE,23,2.2,8.5,13,0.00,,,0.00,WUHU216HW,2013-10-18 20:53:00,
2013-10-18 13:56:00,74.3,19.3,29.94,NW,315,4.9,8.5,13,0.00,,,0.00,WUHU216HW,2013-10-18 20:56:00,
2013-10-18 13:57:00,74.3,19.3,29.94,NNW,338,3.8,8.5,13,0.00,,,0.00,WUHU216HW,2013-10-18 20:57:00,
2013-10-18 13:58:00,74.3,19.3,29.94,West,270,4.5,8.5,13,0.00,,,0.00,WUHU216HW,2013-10-18 20:58:00,
2013-10-18 14:01:00,74.3,19.3,29.94,NE,45,6.0,6.0,13,0.00,,,0.00,WUHU216HW,2013-10-18 21:01:00,
2013-10-18 14:03:00,74.3,19.3,29.94,NNW,338,3.1,8.1,13,0.00,,,0.00,WUHU216HW,2013-10-18 21:03:00,
2013-10-18 14:06:00,74.3,19.3,29.94,ESE,113,0.7,8.3,13,0.00,,,0.00,WUHU216HW,2013-10-18 21:06:00,
2013-10-18 14:08:00,74.5,19.4,29.94,ESE,113,0.4,8.3,13,0.00,,,0.00,WUHU216HW,2013-10-18 21:08:00,
2013-10-18 14:09:00,74.5,21.1,29.94,NW,315,0.4,8.3,14,0.00,,,0.00,WUHU216HW,2013-10-18 21:09:00,
2013-10-18 14:11:00,74.5,19.4,29.94,NW,315,2.0,8.3,13,0.00,,,0.00,WUHU216HW,2013-10-18 21:11:00,
2013-10-18 14:13:00,74.5,19.4,29.94,NNW,338,2.5,8.3,13,0.00,,,0.00,WUHU216HW,2013-10-18 21:13:00,
2013-10-18 14:14:00,74.5,19.4,29.94,West,270,3.4,7.2,13,0.00,,,0.00,WUHU216HW,2013-10-18 21:14:00,
2013-10-18 14:16:00,74.5,19.4,29.94,North,0,5.4,5.4,13,0.00,,,0.00,WUHU216HW,2013-10-18 21:16:00,
2013-10-18 14:17:00,74.7,19.5,29.94,NNE,23,7.4,7.4,13,0.00,,,0.00,WUHU216HW,2013-10-18 21:17:00,
2013-10-18 14:18:00,74.7,19.5,29.94,North,0,3.1,7.4,13,0.00,,,0.00,WUHU216HW,2013-10-18 21:18:00,
2013-10-18 14:19:00,74.7,19.5,29.94,NNW,338,4.0,7.4,13,0.00,,,0.00,WUHU216HW,2013-10-18 21:19:00,
2013-10-18 14:21:00,74.7,19.5,29.94,NW,315,2.7,7.4,13,0.00,,,0.00,WUHU216HW,2013-10-18 21:21:00,
2013-10-18 14:22:00,74.5,19.4,29.94,NW,315,3.1,7.4,13,0.00,,,0.00,WUHU216HW,2013-10-18 21:22:00,
2013-10-18 14:23:00,74.7,19.5,29.94,NNW,338,5.6,7.4,13,0.00,,,0.00,WUHU216HW,2013-10-18 21:23:00,
2013-10-18 14:24:00,74.5,19.4,29.94,NNW,338,3.1,7.4,13,0.00,,,0.00,WUHU216HW,2013-10-18 21:24:00,
2013-10-18 14:26:00,74.5,19.4,29.94,North,0,4.7,7.4,13,0.00,,,0.00,WUHU216HW,2013-10-18 21:26:00,
2013-10-18 14:27:00,74.7,19.5,29.94,NW,315,5.4,5.6,13,0.00,,,0.00,WUHU216HW,2013-10-18 21:27:00,
2013-10-18 14:29:00,74.9,19.6,29.94,West,270,3.4,6.5,13,0.00,,,0.00,WUHU216HW,2013-10-18 21:29:00,
2013-10-18 14:30:00,74.9,19.6,29.94,WNW,293,1.6,6.5,13,0.00,,,0.00,WUHU216HW,2013-10-18 21:30:00,
2013-10-18 14:31:00,74.7,19.5,29.94,WSW,248,2.2,6.5,13,0.00,,,0.00,WUHU216HW,2013-10-18 21:31:00,
2013-10-18 14:32:00,74.7,19.5,29.94,WSW,248,2.2,6.5,13,0.00,,,0.00,WUHU216HW,2013-10-18 21:32:00,
2013-10-18 14:34:00,74.7,19.5,29.94,SSW,203,1.3,6.5,13,0.00,,,0.00,WUHU216HW,2013-10-18 21:34:00,
2013-10-18 14:35:00,74.5,19.4,29.94,North,0,2.5,6.5,13,0.00,,,0.00,WUHU216HW,2013-10-18 21:35:00,
2013-10-18 14:36:00,74.9,19.6,29.94,North,0,2.2,6.5,13,0.00,,,0.00,WUHU216HW,2013-10-18 21:36:00,
2013-10-18 14:37:00,74.9,19.6,29.94,North,0,0.9,6.5,13,0.00,,,0.00,WUHU216HW,2013-10-18 21:37:00,
2013-10-18 14:39:00,75.1,19.8,29.94,WSW,248,2.2,4.7,13,0.00,,,0.00,WUHU216HW,2013-10-18 21:39:00,
2013-10-18 14:40:00,75.1,19.8,29.94,NNE,23,3.4,4.7,13,0.00,,,0.00,WUHU216HW,2013-10-18 21:40:00,
2013-10-18 14:42:00,75.2,19.9,29.94,NNW,338,1.1,6.0,13,0.00,,,0.00,WUHU216HW,2013-10-18 21:42:00,
2013-10-18 14:43:00,75.4,20.1,29.94,WNW,293,3.1,6.0,13,0.00,,,0.00,WUHU216HW,2013-10-18 21:43:00,
2013-10-18 14:44:00,75.4,18.4,29.94,North,0,1.6,6.0,12,0.00,,,0.00,WUHU216HW,2013-10-18 21:44:00,
2013-10-18 14:45:00,75.4,18.4,29.94,NW,315,2.2,6.0,12,0.00,,,0.00,WUHU216HW,2013-10-18 21:45:00,
2013-10-18 14:47:00,75.4,18.4,29.94,WNW,293,4.3,7.4,12,0.00,,,0.00,WUHU216HW,2013-10-18 21:47:00,
2013-10-18 14:48:00,75.4,18.4,29.94,NNW,338,5.6,7.4,12,0.00,,,0.00,WUHU216HW,2013-10-18 21:48:00,
2013-10-18 14:49:00,75.4,18.4,29.94,WNW,293,3.6,7.4,12,0.00,,,0.00,WUHU216HW,2013-10-18 21:49:00,
2013-10-18 14:52:00,75.2,18.3,29.94,West,270,3.4,7.4,12,0.00,,,0.00,WUHU216HW,2013-10-18 21:52:00,
2013-10-18 14:53:00,75.2,18.3,29.94,NW,315,1.8,7.4,12,0.00,,,0.00,WUHU216HW,2013-10-18 21:53:00,
2013-10-18 14:54:00,75.2,18.3,29.94,NNW,338,0.9,7.4,12,0.00,,,0.00,WUHU216HW,2013-10-18 21:54:00,
2013-10-18 14:57:00,75.4,20.1,29.94,North,0,1.1,6.3,13,0.00,,,0.00,WUHU216HW,2013-10-18 21:57:00,
2013-10-18 14:58:00,75.2,19.9,29.94,North,0,1.1,6.3,13,0.00,,,0.00,WUHU216HW,2013-10-18 21:58:00,
2013-10-18 15:00:00,75.6,20.2,29.94,NW,315,1.3,4.3,13,0.00,,,0.00,WUHU216HW,2013-10-18 22:00:00,
2013-10-18 15:02:00,75.4,18.4,29.94,NW,315,4.0,7.2,12,0.00,,,0.00,WUHU216HW,2013-10-18 22:02:00,
2013-10-18 15:03:00,75.4,18.4,29.94,North,0,3.4,7.2,12,0.00,,,0.00,WUHU216HW,2013-10-18 22:03:00,
2013-10-18 15:05:00,75.4,18.4,29.94,WSW,248,2.5,7.2,12,0.00,,,0.00,WUHU216HW,2013-10-18 22:05:00,
2013-10-18 15:08:00,75.6,18.5,29.94,NNW,338,2.9,7.2,12,0.00,,,0.00,WUHU216HW,2013-10-18 22:08:00,
2013-10-18 15:09:00,75.4,18.4,29.94,North,0,4.0,7.2,12,0.00,,,0.00,WUHU216HW,2013-10-18 22:09:00,
2013-10-18 15:10:00,75.4,18.4,29.94,North,0,4.7,8.7,12,0.00,,,0.00,WUHU216HW,2013-10-18 22:10:00,
2013-10-18 15:13:00,75.4,18.4,29.94,NE,45,2.7,8.7,12,0.00,,,0.00,WUHU216HW,2013-10-18 22:13:00,
2013-10-18 15:14:00,75.2,18.3,29.94,North,0,3.6,8.7,12,0.00,,,0.00,WUHU216HW,2013-10-18 22:14:00,
2013-10-18 15:15:00,75.2,18.3,29.94,NNW,338,1.3,8.7,12,0.00,,,0.00,WUHU216HW,2013-10-18 22:15:00,
2013-10-18 15:18:00,75.4,18.4,29.94,NE,45,2.9,8.7,12,0.00,,,0.00,WUHU216HW,2013-10-18 22:18:00,
2013-10-18 15:19:00,75.4,18.4,29.94,NNE,23,4.7,8.7,12,0.00,,,0.00,WUHU216HW,2013-10-18 22:19:00,
2013-10-18 15:20:00,75.4,18.4,29.94,NNE,23,3.8,8.7,12,0.00,,,0.00,WUHU216HW,2013-10-18 22:20:00,
2013-10-18 15:23:00,75.6,18.5,29.94,NE,45,1.8,4.7,12,0.00,,,0.00,WUHU216HW,2013-10-18 22:23:00,
2013-10-18 15:24:00,75.6,18.5,29.94,North,0,3.1,5.1,12,0.00,,,0.00,WUHU216HW,2013-10-18 22:24:00,
2013-10-18 15:25:00,75.6,18.5,29.94,North,0,4.5,5.1,12,0.00,,,0.00,WUHU216HW,2013-10-18 22:25:00,
2013-10-18 15:28:00,75.8,18.7,29.94,NW,315,2.2,5.1,12,0.00,,,0.00,WUHU216HW,2013-10-18 22:28:00,
2013-10-18 15:29:00,75.6,18.5,29.94,NW,315,1.3,5.1,12,0.00,,,0.00,WUHU216HW,2013-10-18 22:29:00,
2013-10-18 15:30:00,75.6,18.5,29.94,North,0,1.8,5.1,12,0.00,,,0.00,WUHU216HW,2013-10-18 22:30:00,
2013-10-18 15:33:00,75.6,18.5,29.94,NW,315,4.0,5.1,12,0.00,,,0.00,WUHU216HW,2013-10-18 22:33:00,
2013-10-18 15:34:00,75.6,18.5,29.94,NW,315,2.9,4.5,12,0.00,,,0.00,WUHU216HW,2013-10-18 22:34:00,
2013-10-18 15:35:00,75.6,18.5,29.94,NNW,338,4.0,4.5,12,0.00,,,0.00,WUHU216HW,2013-10-18 22:35:00,
2013-10-18 15:36:00,75.6,18.5,29.94,NNW,338,2.9,4.0,12,0.00,,,0.00,WUHU216HW,2013-10-18 22:36:00,
2013-10-18 15:38:00,75.2,18.3,29.94,NNW,338,1.6,4.5,12,0.00,,,0.00,WUHU216HW,2013-10-18 22:38:00,
2013-10-18 15:40:00,75.2,18.3,29.94,NNW,338,1.6,4.5,12,0.00,,,0.00,WUHU216HW,2013-10-18 22:40:00,
2013-10-18 15:41:00,75.2,18.3,29.94,West,270,0.7,4.5,12,0.00,,,0.00,WUHU216HW,2013-10-18 22:41:00,
2013-10-18 15:44:00,75.2,18.3,29.94,NNW,338,1.1,4.5,12,0.00,,,0.00,WUHU216HW,2013-10-18 22:44:00,
2013-10-18 15:45:00,75.2,18.3,29.94,NNW,338,0.9,4.5,12,0.00,,,0.00,WUHU216HW,2013-10-18 22:45:00,
2013-10-18 15:46:00,75.2,18.3,29.94,North,0,2.2,4.5,12,0.00,,,0.00,WUHU216HW,2013-10-18 22:46:00,
2013-10-18 15:49:00,75.2,18.3,29.94,WSW,248,4.7,4.9,12,0.00,,,0.00,WUHU216HW,2013-10-18 22:49:00,
2013-10-18 15:50:00,75.2,18.3,29.94,NW,315,1.8,4.9,12,0.00,,,0.00,WUHU216HW,2013-10-18 22:50:00,
2013-10-18 15:51:00,75.2,18.3,29.94,West,270,1.8,4.9,12,0.00,,,0.00,WUHU216HW,2013-10-18 22:51:00,
2013-10-18 15:52:00,75.2,18.3,29.94,West,270,2.2,4.9,12,0.00,,,0.00,WUHU216HW,2013-10-18 22:52:00,
2013-10-18 15:54:00,75.1,18.1,29.94,WNW,293,2.7,4.9,12,0.00,,,0.00,WUHU216HW,2013-10-18 22:54:00,
2013-10-18 15:55:00,75.1,18.1,29.94,NW,315,3.6,4.9,12,0.00,,,0.00,WUHU216HW,2013-10-18 22:55:00,
2013-10-18 15:56:00,75.1,18.1,29.94,NW,315,2.5,4.9,12,0.00,,,0.00,WUHU216HW,2013-10-18 22:56:00,
2013-10-18 15:57:00,75.1,18.1,29.94,NW,315,3.4,4.9,12,0.00,,,0.00,WUHU216HW,2013-10-18 22:57:00,
2013-10-18 15:59:00,75.1,18.1,29.94,WNW,293,3.1,4.7,12,0.00,,,0.00,WUHU216HW,2013-10-18 22:59:00,
2013-10-18 16:00:00,75.1,18.1,29.94,NW,315,1.1,4.7,12,0.00,,,0.00,WUHU216HW,2013-10-18 23:00:00,
2013-10-18 16:01:00,75.1,18.1,29.94,NW,315,2.5,4.7,12,0.00,,,0.00,WUHU216HW,2013-10-18 23:01:00,
2013-10-18 16:02:00,75.1,18.1,29.94,NW,315,2.5,4.7,12,0.00,,,0.00,WUHU216HW,2013-10-18 23:02:00,
2013-10-18 16:04:00,75.1,18.1,29.94,NNW,338,2.5,4.7,12,0.00,,,0.00,WUHU216HW,2013-10-18 23:04:00,
2013-10-18 16:05:00,75.1,18.1,29.94,NNW,338,1.6,4.7,12,0.00,,,0.00,WUHU216HW,2013-10-18 23:05:00,
2013-10-18 16:06:00,75.1,18.1,29.94,NW,315,1.8,4.7,12,0.00,,,0.00,WUHU216HW,2013-10-18 23:06:00,
2013-10-18 16:07:00,75.1,18.1,29.94,NNW,338,3.8,4.7,12,0.00,,,0.00,WUHU216HW,2013-10-18 23:07:00,
2013-10-18 16:09:00,74.9,18.0,29.94,WSW,248,0.0,4.7,12,0.00,,,0.00,WUHU216HW,2013-10-18 23:09:00,
2013-10-18 16:11:00,75.1,18.1,29.94,NNE,23,1.3,3.8,12,0.00,,,0.00,WUHU216HW,2013-10-18 23:11:00,
2013-10-18 16:12:00,75.1,18.1,29.94,NNW,338,1.8,3.8,12,0.00,,,0.00,WUHU216HW,2013-10-18 23:12:00,
2013-10-18 16:13:00,75.2,18.3,29.94,NNW,338,3.6,3.8,12,0.00,,,0.00,WUHU216HW,2013-10-18 23:13:00,
2013-10-18 16:14:00,75.2,18.3,29.94,NNW,338,3.1,3.8,12,0.00,,,0.00,WUHU216HW,2013-10-18 23:14:00,
2013-10-18 16:16:00,75.1,18.1,29.94,North,0,3.8,4.0,12,0.00,,,0.00,WUHU216HW,2013-10-18 23:16:00,
2013-10-18 16:17:00,75.1,18.1,29.94,NW,315,2.2,4.0,12,0.00,,,0.00,WUHU216HW,2013-10-18 23:17:00,
2013-10-18 16:18:00,74.9,18.0,29.94,North,0,1.6,4.0,12,0.00,,,0.00,WUHU216HW,2013-10-18 23:18:00,
2013-10-18 16:19:00,75.1,18.1,29.94,NNW,338,2.5,4.7,12,0.00,,,0.00,WUHU216HW,2013-10-18 23:19:00,
2013-10-18 16:20:00,74.9,18.0,29.94,NNW,338,2.5,4.7,12,0.00,,,0.00,WUHU216HW,2013-10-18 23:20:00,
2013-10-18 16:21:00,75.1,18.1,29.94,West,270,1.8,4.7,12,0.00,,,0.00,WUHU216HW,2013-10-18 23:21:00,
2013-10-18 16:22:00,75.1,18.1,29.94,NW,315,4.0,4.7,12,0.00,,,0.00,WUHU216HW,2013-10-18 23:22:00,
2013-10-18 16:23:00,75.1,18.1,29.94,WNW,293,4.7,4.7,12,0.00,,,0.00,WUHU216HW,2013-10-18 23:23:00,
2013-10-18 16:25:00,75.1,18.1,29.94,NNW,338,4.0,4.7,12,0.00,,,0.00,WUHU216HW,2013-10-18 23:25:00,
2013-10-18 16:26:00,75.1,18.1,29.94,NW,315,1.6,4.7,12,0.00,,,0.00,WUHU216HW,2013-10-18 23:26:00,
2013-10-18 16:28:00,74.9,18.0,29.94,NNW,338,2.2,4.7,12,0.00,,,0.00,WUHU216HW,2013-10-18 23:28:00,
2013-10-18 16:30:00,75.1,18.1,29.94,NE,45,4.0,4.7,12,0.00,,,0.00,WUHU216HW,2013-10-18 23:30:00,
2013-10-18 16:32:00,75.2,19.9,29.94,North,0,1.8,6.3,13,0.00,,,0.00,WUHU216HW,2013-10-18 23:32:00,
2013-10-18 16:33:00,75.2,19.9,29.94,NNW,338,1.1,6.3,13,0.00,,,0.00,WUHU216HW,2013-10-18 23:33:00,
2013-10-18 16:34:00,75.4,20.1,29.94,NW,315,1.3,6.3,13,0.00,,,0.00,WUHU216HW,2013-10-18 23:34:00,
2013-10-18 16:35:00,75.4,18.4,29.94,NNW,338,2.9,6.3,12,0.00,,,0.00,WUHU216HW,2013-10-18 23:35:00,
2013-10-18 16:36:00,75.6,20.2,29.94,NNW,338,3.6,6.3,13,0.00,,,0.00,WUHU216HW,2013-10-18 23:36:00,
2013-10-18 16:37:00,75.6,20.2,29.94,NNW,338,2.2,6.3,13,0.00,,,0.00,WUHU216HW,2013-10-18 23:37:00,
2013-10-18 16:38:00,75.6,20.2,29.94,NNW,338,2.2,6.3,13,0.00,,,0.00,WUHU216HW,2013-10-18 23:38:00,
2013-10-18 16:40:00,76.0,20.5,29.94,North,0,2.9,6.3,13,0.00,,,0.00,WUHU216HW,2013-10-18 23:40:00,
2013-10-18 16:42:00,76.3,20.8,29.94,North,0,2.5,5.4,13,0.00,,,0.00,WUHU216HW,2013-10-18 23:42:00,
2013-10-18 16:43:00,76.5,20.9,29.94,NE,45,2.5,5.4,13,0.00,,,0.00,WUHU216HW,2013-10-18 23:43:00,
2013-10-18 16:45:00,76.9,21.3,29.94,NNE,23,0.4,5.4,13,0.00,,,0.00,WUHU216HW,2013-10-18 23:45:00,
2013-10-18 16:47:00,77.4,21.6,29.94,NW,315,1.3,5.8,13,0.00,,,0.00,WUHU216HW,2013-10-18 23:47:00,
2013-10-18 16:48:00,77.8,20.3,29.94,NNW,338,1.6,5.8,12,0.00,,,0.00,WUHU216HW,2013-10-18 23:48:00,
2013-10-18 16:50:00,78.1,20.4,29.94,NNW,338,2.9,5.8,12,0.00,,,0.00,WUHU216HW,2013-10-18 23:50:00,
2013-10-18 16:53:00,78.7,20.9,29.94,NNW,338,1.1,5.8,12,0.00,,,0.00,WUHU216HW,2013-10-18 23:53:00,
2013-10-18 16:54:00,78.8,21.0,29.94,NW,315,4.7,5.8,12,0.00,,,0.00,WUHU216HW,2013-10-18 23:54:00,
2013-10-18 16:55:00,79.0,19.4,29.94,North,0,4.7,5.8,11,0.00,,,0.00,WUHU216HW,2013-10-18 23:55:00,
2013-10-18 16:56:00,79.0,19.4,29.94,NE,45,3.6,5.8,11,0.00,,,0.00,WUHU216HW,2013-10-18 23:56:00,
2013-10-18 16:58:00,79.6,21.6,29.95,North,0,2.2,5.4,12,0.00,,,0.00,WUHU216HW,2013-10-18 23:58:00,
2013-10-18 16:59:00,79.7,21.7,29.95,North,0,1.6,5.4,12,0.00,,,0.00,WUHU216HW,2013-10-18 23:59:00,
2013-10-18 17:00:00,80.1,22.1,29.94,North,0,1.1,5.4,12,0.00,,,0.00,WUHU216HW,2013-10-19 00:00:00,
2013-10-18 17:01:00,80.1,22.1,29.94,NNE,23,1.1,5.4,12,0.00,,,0.00,WUHU216HW,2013-10-19 00:01:00,
2013-10-18 17:03:00,81.0,22.8,29.94,NNE,23,4.3,5.4,12,0.00,,,0.00,WUHU216HW,2013-10-19 00:03:00,
2013-10-18 17:04:00,81.2,22.9,29.95,North,0,3.4,5.4,12,0.00,,,0.00,WUHU216HW,2013-10-19 00:04:00,
2013-10-18 17:05:00,81.7,21.6,29.95,NNE,23,1.8,4.7,11,0.00,,,0.00,WUHU216HW,2013-10-19 00:05:00,
2013-10-18 17:06:00,81.9,21.8,29.95,NNE,23,5.4,5.4,11,0.00,,,0.00,WUHU216HW,2013-10-19 00:06:00,
2013-10-18 17:08:00,82.3,22.1,29.95,North,0,4.7,5.4,11,0.00,,,0.00,WUHU216HW,2013-10-19 00:08:00,
2013-10-18 17:09:00,82.1,22.0,29.95,North,0,2.7,5.4,11,0.00,,,0.00,WUHU216HW,2013-10-19 00:09:00,
2013-10-18 17:11:00,81.7,21.6,29.95,North,0,4.0,6.5,11,0.00,,,0.00,WUHU216HW,2013-10-19 00:11:00,
2013-10-18 17:13:00,81.2,21.3,29.95,North,0,2.2,6.5,11,0.00,,,0.00,WUHU216HW,2013-10-19 00:13:00,
2013-10-18 17:14:00,81.0,21.1,29.95,NNE,23,4.3,6.5,11,0.00,,,0.00,WUHU216HW,2013-10-19 00:14:00,
2013-10-18 17:15:00,80.6,20.8,29.95,North,0,1.6,6.5,11,0.00,,,0.00,WUHU216HW,2013-10-19 00:15:00,
2013-10-18 17:16:00,79.9,20.2,29.95,North,0,2.5,6.5,11,0.00,,,0.00,WUHU216HW,2013-10-19 00:16:00,
2013-10-18 17:18:00,79.0,19.4,29.95,North,0,3.1,6.5,11,0.00,,,0.00,WUHU216HW,2013-10-19 00:18:00,
2013-10-18 17:19:00,78.7,19.2,29.95,NNW,338,4.9,6.5,11,0.00,,,0.00,WUHU216HW,2013-10-19 00:19:00,
2013-10-18 17:20:00,78.5,19.1,29.95,North,0,1.1,6.3,11,0.00,,,0.00,WUHU216HW,2013-10-19 00:20:00,
2013-10-18 17:21:00,77.8,18.5,29.95,North,0,1.8,5.1,11,0.00,,,0.00,WUHU216HW,2013-10-19 00:21:00,
2013-10-18 17:22:00,77.6,18.5,29.95,North,0,1.8,5.1,11,0.00,,,0.00,WUHU216HW,2013-10-19 00:22:00,
2013-10-18 17:24:00,76.9,19.5,29.95,NNE,23,4.0,4.9,12,0.00,,,0.00,WUHU216HW,2013-10-19 00:24:00,
2013-10-18 17:25:00,76.1,19.0,29.95,North,0,4.5,4.9,12,0.00,,,0.00,WUHU216HW,2013-10-19 00:25:00,
2013-10-18 17:26:00,76.1,19.0,29.95,NNE,23,2.7,4.9,12,0.00,,,0.00,WUHU216HW,2013-10-19 00:26:00,
2013-10-18 17:27:00,76.0,18.8,29.95,North,0,2.2,4.9,12,0.00,,,0.00,WUHU216HW,2013-10-19 00:27:00,
2013-10-18 17:29:00,75.2,18.3,29.96,North,0,0.9,4.9,12,0.00,,,0.00,WUHU216HW,2013-10-19 00:29:00,
2013-10-18 17:31:00,74.9,18.0,29.96,NNW,338,0.9,4.9,12,0.00,,,0.00,WUHU216HW,2013-10-19 00:31:00,
2013-10-18 17:32:00,74.7,17.8,29.96,NNW,338,0.7,4.9,12,0.00,,,0.00,WUHU216HW,2013-10-19 00:32:00,
2013-10-18 17:34:00,74.3,17.7,29.96,NNW,338,0.4,4.9,12,0.00,,,0.00,WUHU216HW,2013-10-19 00:34:00,
2013-10-18 17:35:00,74.2,17.5,29.96,North,0,1.1,4.9,12,0.00,,,0.00,WUHU216HW,2013-10-19 00:35:00,
2013-10-18 17:37:00,73.8,18.9,29.96,NNW,338,0.4,2.5,13,0.00,,,0.00,WUHU216HW,2013-10-19 00:37:00,
2013-10-18 17:39:00,73.3,18.5,29.96,NNW,338,0.2,1.3,13,0.00,,,0.00,WUHU216HW,2013-10-19 00:39:00,
2013-10-18 17:40:00,73.1,18.3,29.96,NNW,338,0.0,1.3,13,0.00,,,0.00,WUHU216HW,2013-10-19 00:40:00,
2013-10-18 17:42:00,72.7,18.0,29.96,SW,225,0.7,1.1,13,0.00,,,0.00,WUHU216HW,2013-10-19 00:42:00,
2013-10-18 17:44:00,72.2,17.6,29.96,WSW,248,3.4,3.4,13,0.00,,,0.00,WUHU216HW,2013-10-19 00:44:00,
2013-10-18 17:45:00,72.0,17.4,29.96,SW,225,2.2,3.4,13,0.00,,,0.00,WUHU216HW,2013-10-19 00:45:00,
2013-10-18 17:47:00,71.5,20.2,29.96,WSW,248,3.4,3.4,15,0.00,,,0.00,WUHU216HW,2013-10-19 00:47:00,
2013-10-18 17:49:00,70.6,19.4,29.97,WSW,248,2.5,3.4,15,0.00,,,0.00,WUHU216HW,2013-10-19 00:49:00,
2013-10-18 17:50:00,70.2,19.2,29.97,WSW,248,2.0,3.4,15,0.00,,,0.00,WUHU216HW,2013-10-19 00:50:00,
2013-10-18 17:52:00,69.7,20.3,29.97,West,270,1.3,3.4,16,0.00,,,0.00,WUHU216HW,2013-10-19 00:52:00,
2013-10-18 17:53:00,69.5,20.3,29.96,WSW,248,2.5,3.4,16,0.00,,,0.00,WUHU216HW,2013-10-19 00:53:00,
2013-10-18 17:55:00,68.8,19.7,29.97,West,270,1.3,3.4,16,0.00,,,0.00,WUHU216HW,2013-10-19 00:55:00,
2013-10-18 17:57:00,68.2,19.3,29.97,WSW,248,2.2,3.4,16,0.00,,,0.00,WUHU216HW,2013-10-19 00:57:00,
2013-10-18 17:58:00,68.0,19.2,29.97,WSW,248,2.2,3.4,16,0.00,,,0.00,WUHU216HW,2013-10-19 00:58:00,
2013-10-18 18:00:00,67.7,18.8,29.97,West,270,1.3,3.6,16,0.00,,,0.00,WUHU216HW,2013-10-19 01:00:00,
2013-10-18 18:02:00,67.1,20.0,29.97,NW,315,0.0,3.6,17,0.00,,,0.00,WUHU216HW,2013-10-19 01:02:00,
2013-10-18 18:03:00,67.1,20.0,29.97,NW,315,0.4,3.6,17,0.00,,,0.00,WUHU216HW,2013-10-19 01:03:00,
2013-10-18 18:05:00,67.0,19.8,29.97,West,270,1.3,3.6,17,0.00,,,0.00,WUHU216HW,2013-10-19 01:05:00,
2013-10-18 18:06:00,66.8,19.6,29.97,WNW,293,3.8,3.8,17,0.00,,,0.00,WUHU216HW,2013-10-19 01:06:00,
2013-10-18 18:08:00,66.6,19.5,29.97,West,270,3.1,5.1,17,0.00,,,0.00,WUHU216HW,2013-10-19 01:08:00,
2013-10-18 18:09:00,66.6,19.5,29.97,West,270,2.5,5.1,17,0.00,,,0.00,WUHU216HW,2013-10-19 01:09:00,
2013-10-18 18:10:00,66.4,19.4,29.97,WSW,248,2.9,5.1,17,0.00,,,0.00,WUHU216HW,2013-10-19 01:10:00,
2013-10-18 18:12:00,66.2,19.2,29.97,WNW,293,1.1,5.1,17,0.00,,,0.00,WUHU216HW,2013-10-19 01:12:00,
2013-10-18 18:13:00,66.1,19.1,29.97,WSW,248,2.5,5.1,17,0.00,,,0.00,WUHU216HW,2013-10-19 01:13:00,
2013-10-18 18:14:00,65.9,20.5,29.97,West,270,4.0,5.1,18,0.00,,,0.00,WUHU216HW,2013-10-19 01:14:00,
2013-10-18 18:15:00,65.9,20.5,29.97,West,270,3.4,5.1,18,0.00,,,0.00,WUHU216HW,2013-10-19 01:15:00,
2013-10-18 18:16:00,65.7,20.3,29.97,West,270,4.7,5.1,18,0.00,,,0.00,WUHU216HW,2013-10-19 01:16:00,
2013-10-18 18:17:00,65.5,20.2,29.97,West,270,4.3,5.1,18,0.00,,,0.00,WUHU216HW,2013-10-19 01:17:00,
2013-10-18 18:18:00,65.5,20.2,29.97,West,270,3.1,5.1,18,0.00,,,0.00,WUHU216HW,2013-10-19 01:18:00,
2013-10-18 18:20:00,65.2,19.9,29.97,West,270,5.1,5.8,18,0.00,,,0.00,WUHU216HW,2013-10-19 01:20:00,
2013-10-18 18:21:00,64.8,19.6,29.97,WSW,248,4.0,6.3,18,0.00,,,0.00,WUHU216HW,2013-10-19 01:21:00,
2013-10-18 18:22:00,64.8,19.6,29.97,West,270,3.6,6.3,18,0.00,,,0.00,WUHU216HW,2013-10-19 01:22:00,
2013-10-18 18:23:00,64.6,21.1,29.97,WNW,293,2.7,6.3,19,0.00,,,0.00,WUHU216HW,2013-10-19 01:23:00,
2013-10-18 18:25:00,64.4,20.9,29.97,West,270,4.0,6.3,19,0.00,,,0.00,WUHU216HW,2013-10-19 01:25:00,
2013-10-18 18:26:00,64.1,20.6,29.97,West,270,3.4,6.3,19,0.00,,,0.00,WUHU216HW,2013-10-19 01:26:00,
2013-10-18 18:27:00,64.1,20.6,29.97,West,270,3.4,6.3,19,0.00,,,0.00,WUHU216HW,2013-10-19 01:27:00,
2013-10-18 18:28:00,63.9,20.5,29.97,SW,225,4.0,6.3,19,0.00,,,0.00,WUHU216HW,2013-10-19 01:28:00,
2013-10-18 18:30:00,63.7,20.3,29.97,WSW,248,3.6,5.4,19,0.00,,,0.00,WUHU216HW,2013-10-19 01:30:00,
2013-10-18 18:32:00,63.5,20.2,29.97,WSW,248,4.3,5.4,19,0.00,,,0.00,WUHU216HW,2013-10-19 01:32:00,
2013-10-18 18:33:00,63.4,20.1,29.97,WSW,248,4.7,5.4,19,0.00,,,0.00,WUHU216HW,2013-10-19 01:33:00,
2013-10-18 18:34:00,63.4,20.1,29.97,WSW,248,4.3,5.4,19,0.00,,,0.00,WUHU216HW,2013-10-19 01:34:00,
2013-10-18 18:36:00,63.2,19.9,29.97,West,270,4.7,5.4,19,0.00,,,0.00,WUHU216HW,2013-10-19 01:36:00,
2013-10-18 18:37:00,63.0,19.8,29.98,WSW,248,4.7,5.4,19,0.00,,,0.00,WUHU216HW,2013-10-19 01:37:00,
2013-10-18 18:38:00,63.0,19.8,29.98,WSW,248,4.0,5.4,19,0.00,,,0.00,WUHU216HW,2013-10-19 01:38:00,
2013-10-18 18:39:00,63.0,19.8,29.97,West,270,4.3,5.4,19,0.00,,,0.00,WUHU216HW,2013-10-19 01:39:00,
2013-10-18 18:42:00,62.6,22.1,29.97,WSW,248,5.6,7.2,21,0.00,,,0.00,WUHU216HW,2013-10-19 01:42:00,
2013-10-18 18:43:00,62.6,22.1,29.97,West,270,4.0,7.2,21,0.00,,,0.00,WUHU216HW,2013-10-19 01:43:00,
2013-10-18 18:44:00,62.5,21.9,29.97,WSW,248,5.1,7.2,21,0.00,,,0.00,WUHU216HW,2013-10-19 01:44:00,
2013-10-18 18:47:00,61.9,21.4,29.97,WSW,248,4.3,7.2,21,0.00,,,0.00,WUHU216HW,2013-10-19 01:47:00,
2013-10-18 18:48:00,61.9,21.4,29.98,WSW,248,4.9,7.2,21,0.00,,,0.00,WUHU216HW,2013-10-19 01:48:00,
2013-10-18 18:49:00,61.7,21.3,29.98,SW,225,4.0,7.2,21,0.00,,,0.00,WUHU216HW,2013-10-19 01:49:00,
2013-10-18 18:50:00,61.6,21.2,29.98,WSW,248,3.8,7.2,21,0.00,,,0.00,WUHU216HW,2013-10-19 01:50:00,
2013-10-18 18:52:00,61.6,21.2,29.98,West,270,4.0,6.3,21,0.00,,,0.00,WUHU216HW,2013-10-19 01:52:00,
2013-10-18 18:53:00,61.4,21.0,29.98,WSW,248,5.4,6.3,21,0.00,,,0.00,WUHU216HW,2013-10-19 01:53:00,
2013-10-18 18:54:00,61.4,21.0,29.98,West,270,4.0,5.4,21,0.00,,,0.00,WUHU216HW,2013-10-19 01:54:00,
2013-10-18 18:55:00,61.2,20.9,29.98,WSW,248,4.0,5.4,21,0.00,,,0.00,WUHU216HW,2013-10-19 01:55:00,
2013-10-18 18:57:00,61.2,20.9,29.98,SW,225,4.7,5.4,21,0.00,,,0.00,WUHU216HW,2013-10-19 01:57:00,
2013-10-18 18:58:00,61.0,20.7,29.98,WSW,248,5.4,5.4,21,0.00,,,0.00,WUHU216HW,2013-10-19 01:58:00,
2013-10-18 18:59:00,61.0,20.7,29.98,WSW,248,5.6,5.6,21,0.00,,,0.00,WUHU216HW,2013-10-19 01:59:00,
2013-10-18 19:01:00,60.8,20.6,29.98,SW,225,3.4,5.6,21,0.00,,,0.00,WUHU216HW,2013-10-19 02:01:00,
2013-10-18 19:02:00,60.8,20.6,29.98,WSW,248,3.4,5.6,21,0.00,,,0.00,WUHU216HW,2013-10-19 02:02:00,
2013-10-18 19:04:00,60.7,20.4,29.98,WSW,248,3.8,5.6,21,0.00,,,0.00,WUHU216HW,2013-10-19 02:04:00,
2013-10-18 19:07:00,60.5,20.3,29.98,WSW,248,4.7,5.6,21,0.00,,,0.00,WUHU216HW,2013-10-19 02:07:00,
2013-10-18 19:08:00,60.3,20.1,29.98,West,270,4.0,5.6,21,0.00,,,0.00,WUHU216HW,2013-10-19 02:08:00,
2013-10-18 19:09:00,60.3,20.1,29.98,WSW,248,5.4,5.6,21,0.00,,,0.00,WUHU216HW,2013-10-19 02:09:00,
2013-10-18 19:10:00,60.1,19.9,29.98,West,270,4.3,5.4,21,0.00,,,0.00,WUHU216HW,2013-10-19 02:10:00,
2013-10-18 19:12:00,59.8,20.6,29.99,WSW,248,6.0,6.0,22,0.00,,,0.00,WUHU216HW,2013-10-19 02:12:00,
2013-10-18 19:13:00,59.8,20.6,29.99,WSW,248,5.1,6.0,22,0.00,,,0.00,WUHU216HW,2013-10-19 02:13:00,
2013-10-18 19:14:00,59.8,20.6,29.99,WSW,248,4.9,6.0,22,0.00,,,0.00,WUHU216HW,2013-10-19 02:14:00,
2013-10-18 19:15:00,59.6,20.4,29.99,WSW,248,4.7,6.0,22,0.00,,,0.00,WUHU216HW,2013-10-19 02:15:00,
2013-10-18 19:18:00,59.4,20.3,29.99,WSW,248,4.0,6.0,22,0.00,,,0.00,WUHU216HW,2013-10-19 02:18:00,
2013-10-18 19:19:00,59.4,20.3,29.99,WSW,248,3.8,6.0,22,0.00,,,0.00,WUHU216HW,2013-10-19 02:19:00,
2013-10-18 19:20:00,59.4,20.3,29.99,WSW,248,4.0,6.0,22,0.00,,,0.00,WUHU216HW,2013-10-19 02:20:00,
2013-10-18 19:23:00,59.0,20.0,29.99,WSW,248,5.4,5.8,22,0.00,,,0.00,WUHU216HW,2013-10-19 02:23:00,
2013-10-18 19:24:00,59.0,20.0,29.99,WSW,248,5.4,5.6,22,0.00,,,0.00,WUHU216HW,2013-10-19 02:24:00,
2013-10-18 19:25:00,59.0,20.0,29.99,WSW,248,5.4,5.6,22,0.00,,,0.00,WUHU216HW,2013-10-19 02:25:00,
2013-10-18 19:26:00,59.0,20.0,29.99,WSW,248,4.5,5.6,22,0.00,,,0.00,WUHU216HW,2013-10-19 02:26:00,
2013-10-18 19:28:00,58.9,19.8,29.99,WSW,248,4.9,5.6,22,0.00,,,0.00,WUHU216HW,2013-10-19 02:28:00,
2013-10-18 19:29:00,58.9,19.8,29.99,WSW,248,4.9,5.6,22,0.00,,,0.00,WUHU216HW,2013-10-19 02:29:00,
2013-10-18 19:30:00,58.9,19.8,29.99,WSW,248,4.0,5.6,22,0.00,,,0.00,WUHU216HW,2013-10-19 02:30:00,
2013-10-18 19:32:00,58.9,19.8,29.99,WSW,248,4.0,5.6,22,0.00,,,0.00,WUHU216HW,2013-10-19 02:32:00,
2013-10-18 19:34:00,58.9,19.8,29.99,WSW,248,4.7,5.6,22,0.00,,,0.00,WUHU216HW,2013-10-19 02:34:00,
2013-10-18 19:35:00,58.9,19.8,29.99,West,270,3.6,5.6,22,0.00,,,0.00,WUHU216HW,2013-10-19 02:35:00,
2013-10-18 19:37:00,58.7,19.6,29.99,WSW,248,3.4,5.6,22,0.00,,,0.00,WUHU216HW,2013-10-19 02:37:00,
2013-10-18 19:39:00,58.7,19.6,29.99,WSW,248,4.7,5.1,22,0.00,,,0.00,WUHU216HW,2013-10-19 02:39:00,
2013-10-18 19:40:00,58.7,20.6,29.99,WSW,248,4.5,5.1,23,0.00,,,0.00,WUHU216HW,2013-10-19 02:40:00,
2013-10-18 19:42:00,58.7,20.6,29.99,WSW,248,4.7,5.1,23,0.00,,,0.00,WUHU216HW,2013-10-19 02:42:00,
2013-10-18 19:44:00,58.7,20.6,29.99,West,270,5.4,5.4,23,0.00,,,0.00,WUHU216HW,2013-10-19 02:44:00,
2013-10-18 19:45:00,58.5,20.4,29.99,WSW,248,5.1,5.4,23,0.00,,,0.00,WUHU216HW,2013-10-19 02:45:00,
2013-10-18 19:47:00,58.3,20.4,29.99,WSW,248,4.3,5.4,23,0.00,,,0.00,WUHU216HW,2013-10-19 02:47:00,
2013-10-18 19:49:00,58.3,20.4,29.99,WSW,248,4.0,5.4,23,0.00,,,0.00,WUHU216HW,2013-10-19 02:49:00,
2013-10-18 19:50:00,58.3,20.4,29.99,WSW,248,4.7,5.4,23,0.00,,,0.00,WUHU216HW,2013-10-19 02:50:00,
2013-10-18 19:51:00,58.3,20.4,29.99,WSW,248,5.4,5.4,23,0.00,,,0.00,WUHU216HW,2013-10-19 02:51:00,
2013-10-18 19:52:00,58.3,20.4,29.99,WSW,248,3.8,6.3,23,0.00,,,0.00,WUHU216HW,2013-10-19 02:52:00,
2013-10-18 19:54:00,58.1,20.2,29.99,WSW,248,4.0,6.3,23,0.00,,,0.00,WUHU216HW,2013-10-19 02:54:00,
2013-10-18 19:56:00,58.1,20.2,29.99,WSW,248,4.7,6.3,23,0.00,,,0.00,WUHU216HW,2013-10-19 02:56:00,
2013-10-18 19:58:00,58.0,20.0,29.99,WSW,248,5.6,6.3,23,0.00,,,0.00,WUHU216HW,2013-10-19 02:58:00,
2013-10-18 19:59:00,58.0,20.0,29.99,WSW,248,4.0,6.3,23,0.00,,,0.00,WUHU216HW,2013-10-19 02:59:00,
2013-10-18 20:00:00,58.0,20.0,29.99,West,270,2.9,6.3,23,0.00,,,0.00,WUHU216HW,2013-10-19 03:00:00,
2013-10-18 20:01:00,58.0,20.0,29.99,WSW,248,4.9,6.3,23,0.00,,,0.00,WUHU216HW,2013-10-19 03:01:00,
2013-10-18 20:04:00,58.0,20.0,29.99,West,270,4.5,6.0,23,0.00,,,0.00,WUHU216HW,2013-10-19 03:04:00,
2013-10-18 20:05:00,58.0,20.0,29.99,WSW,248,4.7,6.0,23,0.00,,,0.00,WUHU216HW,2013-10-19 03:05:00,
2013-10-18 20:06:00,58.0,21.0,29.99,WSW,248,6.3,6.3,24,0.00,,,0.00,WUHU216HW,2013-10-19 03:06:00,
2013-10-18 20:07:00,58.0,20.0,29.99,WSW,248,5.1,6.3,23,0.00,,,0.00,WUHU216HW,2013-10-19 03:07:00,
2013-10-18 20:09:00,58.1,21.2,29.99,WSW,248,6.3,6.3,24,0.00,,,0.00,WUHU216HW,2013-10-19 03:09:00,
2013-10-18 20:10:00,58.1,20.2,29.99,WSW,248,5.4,6.3,23,0.00,,,0.00,WUHU216HW,2013-10-19 03:10:00,
2013-10-18 20:11:00,58.1,20.2,29.99,WSW,248,5.4,6.3,23,0.00,,,0.00,WUHU216HW,2013-10-19 03:11:00,
2013-10-18 20:12:00,58.1,21.2,29.99,West,270,4.0,6.3,24,0.00,,,0.00,WUHU216HW,2013-10-19 03:12:00,
2013-10-18 20:14:00,58.1,20.2,29.99,West,270,4.7,6.3,23,0.00,,,0.00,WUHU216HW,2013-10-19 03:14:00,
2013-10-18 20:15:00,58.1,21.2,29.99,WSW,248,4.9,6.3,24,0.00,,,0.00,WUHU216HW,2013-10-19 03:15:00,
2013-10-18 20:16:00,58.1,21.2,29.99,West,270,4.9,6.3,24,0.00,,,0.00,WUHU216HW,2013-10-19 03:16:00,
2013-10-18 20:18:00,58.0,21.0,29.99,WSW,248,5.4,6.3,24,0.00,,,0.00,WUHU216HW,2013-10-19 03:18:00,
2013-10-18 20:19:00,57.8,20.8,29.99,WSW,248,5.4,6.3,24,0.00,,,0.00,WUHU216HW,2013-10-19 03:19:00,
2013-10-18 20:20:00,57.6,20.7,29.99,WSW,248,5.4,6.7,24,0.00,,,0.00,WUHU216HW,2013-10-19 03:20:00,
2013-10-18 20:21:00,57.6,20.7,29.99,WSW,248,5.1,6.7,24,0.00,,,0.00,WUHU216HW,2013-10-19 03:21:00,
2013-10-18 20:23:00,57.4,20.5,29.99,WSW,248,5.8,6.7,24,0.00,,,0.00,WUHU216HW,2013-10-19 03:23:00,
2013-10-18 20:24:00,57.4,20.5,29.99,SW,225,4.5,6.7,24,0.00,,,0.00,WUHU216HW,2013-10-19 03:24:00,
2013-10-18 20:25:00,57.4,20.5,29.99,WSW,248,4.5,6.7,24,0.00,,,0.00,WUHU216HW,2013-10-19 03:25:00,
2013-10-18 20:26:00,57.4,20.5,29.99,West,270,5.4,6.7,24,0.00,,,0.00,WUHU216HW,2013-10-19 03:26:00,
2013-10-18 20:28:00,57.4,20.5,29.99,WSW,248,4.5,6.7,24,0.00,,,0.00,WUHU216HW,2013-10-19 03:28:00,
2013-10-18 20:29:00,57.4,20.5,29.99,WSW,248,4.7,6.7,24,0.00,,,0.00,WUHU216HW,2013-10-19 03:29:00,
2013-10-18 20:30:00,57.4,20.5,29.99,WSW,248,5.4,6.7,24,0.00,,,0.00,WUHU216HW,2013-10-19 03:30:00,
2013-10-18 20:31:00,57.6,20.7,29.99,WSW,248,3.4,6.7,24,0.00,,,0.00,WUHU216HW,2013-10-19 03:31:00,
2013-10-18 20:32:00,57.6,20.7,29.99,WSW,248,4.0,6.7,24,0.00,,,0.00,WUHU216HW,2013-10-19 03:32:00,
2013-10-18 20:33:00,57.6,20.7,29.99,WSW,248,4.0,6.3,24,0.00,,,0.00,WUHU216HW,2013-10-19 03:33:00,
2013-10-18 20:35:00,57.6,20.7,29.99,WSW,248,5.1,6.3,24,0.00,,,0.00,WUHU216HW,2013-10-19 03:35:00,
2013-10-18 20:36:00,57.6,20.7,29.99,West,270,4.3,6.3,24,0.00,,,0.00,WUHU216HW,2013-10-19 03:36:00,
2013-10-18 20:37:00,57.6,20.7,29.99,WSW,248,4.5,6.3,24,0.00,,,0.00,WUHU216HW,2013-10-19 03:37:00,
2013-10-18 20:39:00,57.6,20.7,29.99,West,270,4.7,6.9,24,0.00,,,0.00,WUHU216HW,2013-10-19 03:39:00,
2013-10-18 20:41:00,57.6,20.7,30.00,WSW,248,4.5,6.9,24,0.00,,,0.00,WUHU216HW,2013-10-19 03:41:00,
2013-10-18 20:42:00,57.4,20.5,29.99,West,270,4.0,6.9,24,0.00,,,0.00,WUHU216HW,2013-10-19 03:42:00,
2013-10-18 20:43:00,57.4,20.5,29.99,WSW,248,3.6,6.9,24,0.00,,,0.00,WUHU216HW,2013-10-19 03:43:00,
2013-10-18 20:46:00,57.2,20.3,29.99,WSW,248,6.0,6.9,24,0.00,,,0.00,WUHU216HW,2013-10-19 03:46:00,
2013-10-18 20:47:00,57.2,20.3,29.99,West,270,3.4,6.9,24,0.00,,,0.00,WUHU216HW,2013-10-19 03:47:00,
2013-10-18 20:49:00,57.2,20.3,30.00,WSW,248,4.0,6.0,24,0.00,,,0.00,WUHU216HW,2013-10-19 03:49:00,
2013-10-18 20:51:00,57.2,20.3,30.00,WSW,248,4.0,6.0,24,0.00,,,0.00,WUHU216HW,2013-10-19 03:51:00,
2013-10-18 20:52:00,57.2,20.3,30.00,SW,225,3.8,6.0,24,0.00,,,0.00,WUHU216HW,2013-10-19 03:52:00,
2013-10-18 20:54:00,57.2,20.3,30.00,WSW,248,3.6,6.0,24,0.00,,,0.00,WUHU216HW,2013-10-19 03:54:00,
2013-10-18 20:57:00,57.1,20.3,30.00,WSW,248,5.1,5.6,24,0.00,,,0.00,WUHU216HW,2013-10-19 03:57:00,
2013-10-18 20:58:00,57.1,20.3,30.00,West,270,2.7,5.6,24,0.00,,,0.00,WUHU216HW,2013-10-19 03:58:00,
2013-10-18 20:59:00,57.1,20.3,30.00,WSW,248,4.0,5.6,24,0.00,,,0.00,WUHU216HW,2013-10-19 03:59:00,
2013-10-18 21:01:00,57.1,20.3,30.00,WSW,248,2.2,5.6,24,0.00,,,0.00,WUHU216HW,2013-10-19 04:01:00,
2013-10-18 21:06:00,56.7,20.9,30.00,WSW,248,4.7,5.6,25,0.00,,,0.00,WUHU216HW,2013-10-19 04:06:00,
2013-10-18 21:07:00,56.7,20.9,30.00,WSW,248,4.0,5.1,25,0.00,,,0.00,WUHU216HW,2013-10-19 04:07:00,
2013-10-18 21:11:00,56.5,20.7,30.00,SW,225,3.8,5.1,25,0.00,,,0.00,WUHU216HW,2013-10-19 04:11:00,
2013-10-18 21:12:00,56.5,20.7,30.00,WSW,248,4.9,5.1,25,0.00,,,0.00,WUHU216HW,2013-10-19 04:12:00,
2013-10-18 21:16:00,56.3,20.5,30.00,WSW,248,4.5,5.4,25,0.00,,,0.00,WUHU216HW,2013-10-19 04:16:00,
2013-10-18 21:18:00,56.2,20.4,30.00,WSW,248,4.7,5.4,25,0.00,,,0.00,WUHU216HW,2013-10-19 04:18:00,
2013-10-18 21:21:00,56.2,20.4,30.00,WSW,248,2.9,5.4,25,0.00,,,0.00,WUHU216HW,2013-10-19 04:21:00,
2013-10-18 21:22:00,56.2,20.4,30.00,WSW,248,4.0,5.4,25,0.00,,,0.00,WUHU216HW,2013-10-19 04:22:00,
2013-10-18 21:23:00,56.2,20.4,30.01,SW,225,5.4,6.3,25,0.00,,,0.00,WUHU216HW,2013-10-19 04:23:00,
2013-10-18 21:26:00,56.3,20.5,30.00,WSW,248,3.8,6.3,25,0.00,,,0.00,WUHU216HW,2013-10-19 04:26:00,
2013-10-18 21:27:00,56.3,20.5,30.01,WSW,248,4.5,6.3,25,0.00,,,0.00,WUHU216HW,2013-10-19 04:27:00,
2013-10-18 21:28:00,56.3,20.5,30.01,West,270,4.7,6.3,25,0.00,,,0.00,WUHU216HW,2013-10-19 04:28:00,
2013-10-18 21:31:00,56.5,20.7,30.01,West,270,4.3,6.3,25,0.00,,,0.00,WUHU216HW,2013-10-19 04:31:00,
2013-10-18 21:32:00,56.5,20.7,30.01,WSW,248,4.7,6.3,25,0.00,,,0.00,WUHU216HW,2013-10-19 04:32:00,
2013-10-18 21:34:00,56.5,20.7,30.01,WSW,248,3.1,5.6,25,0.00,,,0.00,WUHU216HW,2013-10-19 04:34:00,
2013-10-18 21:36:00,56.5,20.7,30.01,WSW,248,4.5,5.6,25,0.00,,,0.00,WUHU216HW,2013-10-19 04:36:00,
2013-10-18 21:37:00,56.5,20.7,30.01,WSW,248,4.5,5.6,25,0.00,,,0.00,WUHU216HW,2013-10-19 04:37:00,
2013-10-18 21:39:00,56.3,20.5,30.01,West,270,3.8,6.0,25,0.00,,,0.00,WUHU216HW,2013-10-19 04:39:00,
2013-10-18 21:41:00,56.5,20.7,30.01,WSW,248,3.1,6.0,25,0.00,,,0.00,WUHU216HW,2013-10-19 04:41:00,
2013-10-18 21:42:00,56.5,20.7,30.01,West,270,4.0,6.0,25,0.00,,,0.00,WUHU216HW,2013-10-19 04:42:00,
2013-10-18 21:43:00,56.5,20.7,30.01,WSW,248,4.0,6.0,25,0.00,,,0.00,WUHU216HW,2013-10-19 04:43:00,
2013-10-18 21:45:00,56.5,20.7,30.01,WSW,248,4.0,6.0,25,0.00,,,0.00,WUHU216HW,2013-10-19 04:45:00,
2013-10-18 21:46:00,56.5,20.7,30.01,WSW,248,6.0,6.0,25,0.00,,,0.00,WUHU216HW,2013-10-19 04:46:00,
2013-10-18 21:47:00,56.5,20.7,30.01,West,270,4.7,6.0,25,0.00,,,0.00,WUHU216HW,2013-10-19 04:47:00,
2013-10-18 21:48:00,56.5,20.7,30.01,WSW,248,4.0,6.0,25,0.00,,,0.00,WUHU216HW,2013-10-19 04:48:00,
2013-10-18 21:50:00,56.5,20.7,30.01,WSW,248,4.0,6.0,25,0.00,,,0.00,WUHU216HW,2013-10-19 04:50:00,
2013-10-18 21:51:00,56.5,20.7,30.01,WSW,248,5.1,6.0,25,0.00,,,0.00,WUHU216HW,2013-10-19 04:51:00,
2013-10-18 21:53:00,56.5,20.7,30.01,WSW,248,4.5,6.0,25,0.00,,,0.00,WUHU216HW,2013-10-19 04:53:00,
2013-10-18 21:55:00,56.5,20.7,30.01,WSW,248,4.7,6.9,25,0.00,,,0.00,WUHU216HW,2013-10-19 04:55:00,
2013-10-18 21:56:00,56.5,20.7,30.01,WSW,248,3.6,6.9,25,0.00,,,0.00,WUHU216HW,2013-10-19 04:56:00,
2013-10-18 21:57:00,56.5,20.7,30.01,West,270,4.0,6.9,25,0.00,,,0.00,WUHU216HW,2013-10-19 04:57:00,
2013-10-18 21:58:00,56.5,20.7,30.01,WSW,248,4.9,6.9,25,0.00,,,0.00,WUHU216HW,2013-10-19 04:58:00,
2013-10-18 22:00:00,56.5,20.7,30.01,WSW,248,4.5,6.9,25,0.00,,,0.00,WUHU216HW,2013-10-19 05:00:00,
2013-10-18 22:02:00,56.5,20.7,30.01,WSW,248,5.4,6.9,25,0.00,,,0.00,WUHU216HW,2013-10-19 05:02:00,
2013-10-18 22:03:00,56.5,19.8,30.01,WSW,248,4.7,6.9,24,0.00,,,0.00,WUHU216HW,2013-10-19 05:03:00,
2013-10-18 22:04:00,56.5,20.7,30.01,WSW,248,4.3,6.0,25,0.00,,,0.00,WUHU216HW,2013-10-19 05:04:00,
2013-10-18 22:05:00,56.5,19.8,30.01,WSW,248,3.6,6.0,24,0.00,,,0.00,WUHU216HW,2013-10-19 05:05:00,
2013-10-18 22:07:00,56.3,20.5,30.01,WSW,248,4.7,5.4,25,0.00,,,0.00,WUHU216HW,2013-10-19 05:07:00,
2013-10-18 22:08:00,56.2,19.4,30.01,WSW,248,2.5,5.4,24,0.00,,,0.00,WUHU216HW,2013-10-19 05:08:00,
2013-10-18 22:09:00,56.2,20.4,30.01,West,270,2.5,5.4,25,0.00,,,0.00,WUHU216HW,2013-10-19 05:09:00,
2013-10-18 22:10:00,56.2,20.4,30.01,West,270,3.8,5.4,25,0.00,,,0.00,WUHU216HW,2013-10-19 05:10:00,
2013-10-18 22:11:00,56.2,19.4,30.01,WSW,248,3.4,5.4,24,0.00,,,0.00,WUHU216HW,2013-10-19 05:11:00,
2013-10-18 22:12:00,56.0,20.3,30.01,WSW,248,3.8,4.9,25,0.00,,,0.00,WUHU216HW,2013-10-19 05:12:00,
2013-10-18 22:14:00,55.8,20.1,30.01,WSW,248,4.0,4.9,25,0.00,,,0.00,WUHU216HW,2013-10-19 05:14:00,
2013-10-18 22:15:00,55.8,20.1,30.01,WSW,248,3.4,4.9,25,0.00,,,0.00,WUHU216HW,2013-10-19 05:15:00,
2013-10-18 22:16:00,55.8,20.1,30.01,WSW,248,4.5,4.9,25,0.00,,,0.00,WUHU216HW,2013-10-19 05:16:00,
2013-10-18 22:17:00,55.8,20.1,30.01,West,270,4.0,4.7,25,0.00,,,0.00,WUHU216HW,2013-10-19 05:17:00,
2013-10-18 22:18:00,55.8,20.1,30.01,WSW,248,4.5,4.7,25,0.00,,,0.00,WUHU216HW,2013-10-19 05:18:00,
2013-10-18 22:19:00,55.6,20.0,30.01,West,270,3.4,5.6,25,0.00,,,0.00,WUHU216HW,2013-10-19 05:19:00,
2013-10-18 22:20:00,55.6,20.0,30.01,WSW,248,4.3,5.6,25,0.00,,,0.00,WUHU216HW,2013-10-19 05:20:00,
2013-10-18 22:22:00,55.4,19.8,30.01,SW,225,4.5,5.6,25,0.00,,,0.00,WUHU216HW,2013-10-19 05:22:00,
2013-10-18 22:23:00,55.4,19.8,30.01,SW,225,3.8,5.6,25,0.00,,,0.00,WUHU216HW,2013-10-19 05:23:00,
2013-10-18 22:24:00,55.3,19.6,30.01,West,270,4.7,5.6,25,0.00,,,0.00,WUHU216HW,2013-10-19 05:24:00,
2013-10-18 22:25:00,55.3,19.6,30.01,WSW,248,4.7,5.6,25,0.00,,,0.00,WUHU216HW,2013-10-19 05:25:00,
2013-10-18 22:27:00,55.3,19.6,30.01,WSW,248,5.4,5.6,25,0.00,,,0.00,WUHU216HW,2013-10-19 05:27:00,
2013-10-18 22:28:00,55.1,19.5,30.01,WSW,248,4.5,5.6,25,0.00,,,0.00,WUHU216HW,2013-10-19 05:28:00,
2013-10-18 22:29:00,55.1,19.5,30.01,WSW,248,5.8,6.9,25,0.00,,,0.00,WUHU216HW,2013-10-19 05:29:00,
2013-10-18 22:30:00,55.1,19.5,30.01,West,270,5.8,6.9,25,0.00,,,0.00,WUHU216HW,2013-10-19 05:30:00,
2013-10-18 22:32:00,55.1,19.5,30.01,WSW,248,4.5,6.9,25,0.00,,,0.00,WUHU216HW,2013-10-19 05:32:00,
2013-10-18 22:33:00,55.3,19.6,30.01,WSW,248,3.4,6.9,25,0.00,,,0.00,WUHU216HW,2013-10-19 05:33:00,
2013-10-18 22:34:00,55.4,19.8,30.01,WSW,248,5.1,6.9,25,0.00,,,0.00,WUHU216HW,2013-10-19 05:34:00,
2013-10-18 22:36:00,55.4,19.8,30.01,WSW,248,6.3,6.9,25,0.00,,,0.00,WUHU216HW,2013-10-19 05:36:00,
2013-10-18 22:37:00,55.4,18.9,30.01,West,270,3.8,6.9,24,0.00,,,0.00,WUHU216HW,2013-10-19 05:37:00,
2013-10-18 22:38:00,55.4,18.9,30.01,West,270,3.8,6.9,24,0.00,,,0.00,WUHU216HW,2013-10-19 05:38:00,
2013-10-18 22:40:00,55.4,18.9,30.01,WSW,248,5.1,7.2,24,0.00,,,0.00,WUHU216HW,2013-10-19 05:40:00,
2013-10-18 22:41:00,55.4,18.9,30.01,WSW,248,4.0,7.2,24,0.00,,,0.00,WUHU216HW,2013-10-19 05:41:00,
2013-10-18 22:42:00,55.4,18.9,30.01,WSW,248,6.3,7.2,24,0.00,,,0.00,WUHU216HW,2013-10-19 05:42:00,
2013-10-18 22:43:00,55.6,19.0,30.01,WSW,248,5.4,7.2,24,0.00,,,0.00,WUHU216HW,2013-10-19 05:43:00,
2013-10-18 22:44:00,55.6,19.0,30.01,WSW,248,5.4,7.2,24,0.00,,,0.00,WUHU216HW,2013-10-19 05:44:00,
2013-10-18 22:45:00,55.6,19.0,30.01,WSW,248,4.0,7.2,24,0.00,,,0.00,WUHU216HW,2013-10-19 05:45:00,
2013-10-18 22:47:00,55.6,19.0,30.01,West,270,3.4,7.2,24,0.00,,,0.00,WUHU216HW,2013-10-19 05:47:00,
2013-10-18 22:48:00,55.8,19.2,30.01,West,270,5.1,7.2,24,0.00,,,0.00,WUHU216HW,2013-10-19 05:48:00,
2013-10-18 22:49:00,55.6,19.0,30.01,West,270,2.2,6.7,24,0.00,,,0.00,WUHU216HW,2013-10-19 05:49:00,
2013-10-18 22:50:00,55.6,19.0,30.01,WSW,248,5.1,6.7,24,0.00,,,0.00,WUHU216HW,2013-10-19 05:50:00,
2013-10-18 22:52:00,55.4,18.9,30.01,West,270,2.7,6.7,24,0.00,,,0.00,WUHU216HW,2013-10-19 05:52:00,
2013-10-18 22:53:00,55.4,18.9,30.01,West,270,4.3,5.6,24,0.00,,,0.00,WUHU216HW,2013-10-19 05:53:00,
2013-10-18 22:54:00,55.4,18.9,30.01,WSW,248,4.9,5.4,24,0.00,,,0.00,WUHU216HW,2013-10-19 05:54:00,
2013-10-18 22:55:00,55.4,18.9,30.00,WSW,248,4.9,5.4,24,0.00,,,0.00,WUHU216HW,2013-10-19 05:55:00,
2013-10-18 22:57:00,55.1,18.5,30.01,West,270,4.0,5.4,24,0.00,,,0.00,WUHU216HW,2013-10-19 05:57:00,
2013-10-18 22:58:00,55.1,18.5,30.01,NW,315,2.9,5.4,24,0.00,,,0.00,WUHU216HW,2013-10-19 05:58:00,
2013-10-18 22:59:00,55.1,18.5,30.01,NW,315,2.9,5.4,24,0.00,,,0.00,WUHU216HW,2013-10-19 05:59:00,
2013-10-18 23:00:00,54.9,18.4,30.01,WSW,248,4.0,5.1,24,0.00,,,0.00,WUHU216HW,2013-10-19 06:00:00,
2013-10-18 23:01:00,54.7,18.3,30.01,West,270,3.6,5.1,24,0.00,,,0.00,WUHU216HW,2013-10-19 06:01:00,
2013-10-18 23:02:00,54.7,18.3,30.00,WSW,248,4.3,4.9,24,0.00,,,0.00,WUHU216HW,2013-10-19 06:02:00,
2013-10-18 23:03:00,54.5,18.1,30.01,WSW,248,2.7,4.9,24,0.00,,,0.00,WUHU216HW,2013-10-19 06:03:00,
2013-10-18 23:04:00,54.4,17.9,30.01,West,270,2.9,4.9,24,0.00,,,0.00,WUHU216HW,2013-10-19 06:04:00,
2013-10-18 23:05:00,54.4,17.9,30.01,WSW,248,5.4,6.3,24,0.00,,,0.00,WUHU216HW,2013-10-19 06:05:00,
2013-10-18 23:06:00,54.4,17.9,30.00,WSW,248,5.4,6.3,24,0.00,,,0.00,WUHU216HW,2013-10-19 06:06:00,
2013-10-18 23:07:00,54.2,18.7,30.01,West,270,3.1,6.3,25,0.00,,,0.00,WUHU216HW,2013-10-19 06:07:00,
2013-10-18 23:08:00,54.2,18.7,30.01,WSW,248,3.6,6.3,25,0.00,,,0.00,WUHU216HW,2013-10-19 06:08:00,
2013-10-18 23:09:00,54.2,17.8,30.01,WSW,248,5.4,6.3,24,0.00,,,0.00,WUHU216HW,2013-10-19 06:09:00,
2013-10-18 23:11:00,54.2,17.8,30.01,WSW,248,2.9,6.3,24,0.00,,,0.00,WUHU216HW,2013-10-19 06:11:00,
2013-10-18 23:13:00,54.2,17.8,30.01,SW,225,3.4,6.3,24,0.00,,,0.00,WUHU216HW,2013-10-19 06:13:00,
2013-10-18 23:14:00,54.2,17.8,30.01,WSW,248,3.4,6.3,24,0.00,,,0.00,WUHU216HW,2013-10-19 06:14:00,
2013-10-18 23:16:00,54.2,17.8,30.01,West,270,2.0,5.8,24,0.00,,,0.00,WUHU216HW,2013-10-19 06:16:00,
2013-10-18 23:18:00,54.0,17.7,30.01,WSW,248,2.5,5.4,24,0.00,,,0.00,WUHU216HW,2013-10-19 06:18:00,
2013-10-18 23:19:00,54.0,17.7,30.01,WSW,248,4.0,4.0,24,0.00,,,0.00,WUHU216HW,2013-10-19 06:19:00,
2013-10-18 23:22:00,53.8,18.5,30.01,WSW,248,4.3,5.1,25,0.00,,,0.00,WUHU216HW,2013-10-19 06:22:00,
2013-10-18 23:23:00,53.6,18.3,30.01,West,270,4.7,5.1,25,0.00,,,0.00,WUHU216HW,2013-10-19 06:23:00,
2013-10-18 23:24:00,53.6,18.3,30.01,WSW,248,4.5,5.1,25,0.00,,,0.00,WUHU216HW,2013-10-19 06:24:00,
2013-10-18 23:25:00,53.6,18.3,30.01,West,270,3.6,5.1,25,0.00,,,0.00,WUHU216HW,2013-10-19 06:25:00,
2013-10-18 23:27:00,53.5,18.1,30.01,West,270,3.1,5.1,25,0.00,,,0.00,WUHU216HW,2013-10-19 06:27:00,
2013-10-18 23:29:00,53.5,18.1,30.01,West,270,3.6,6.5,25,0.00,,,0.00,WUHU216HW,2013-10-19 06:29:00,
2013-10-18 23:30:00,53.5,18.1,30.01,West,270,4.5,6.5,25,0.00,,,0.00,WUHU216HW,2013-10-19 06:30:00,
2013-10-18 23:32:00,53.6,18.3,30.01,West,270,4.3,6.5,25,0.00,,,0.00,WUHU216HW,2013-10-19 06:32:00,
2013-10-18 23:34:00,53.6,18.3,30.01,WSW,248,4.7,6.5,25,0.00,,,0.00,WUHU216HW,2013-10-19 06:34:00,
2013-10-18 23:35:00,53.6,18.3,30.01,West,270,4.0,6.5,25,0.00,,,0.00,WUHU216HW,2013-10-19 06:35:00,
2013-10-18 23:36:00,53.6,18.3,30.01,West,270,4.3,6.5,25,0.00,,,0.00,WUHU216HW,2013-10-19 06:36:00,
2013-10-18 23:37:00,53.6,18.3,30.01,West,270,4.7,6.5,25,0.00,,,0.00,WUHU216HW,2013-10-19 06:37:00,
2013-10-18 23:39:00,53.6,18.3,30.01,West,270,5.1,5.4,25,0.00,,,0.00,WUHU216HW,2013-10-19 06:39:00,
2013-10-18 23:40:00,53.5,18.1,30.01,WSW,248,4.5,5.4,25,0.00,,,0.00,WUHU216HW,2013-10-19 06:40:00,
2013-10-18 23:41:00,53.5,18.1,30.01,WSW,248,5.1,5.4,25,0.00,,,0.00,WUHU216HW,2013-10-19 06:41:00,
2013-10-18 23:42:00,53.3,18.0,30.01,WSW,248,4.0,5.4,25,0.00,,,0.00,WUHU216HW,2013-10-19 06:42:00,
2013-10-18 23:44:00,53.3,18.0,30.01,West,270,4.0,5.4,25,0.00,,,0.00,WUHU216HW,2013-10-19 06:44:00,
2013-10-18 23:45:00,53.1,17.8,30.01,West,270,4.3,5.4,25,0.00,,,0.00,WUHU216HW,2013-10-19 06:45:00,
2013-10-18 23:46:00,53.1,17.8,30.01,West,270,3.8,5.4,25,0.00,,,0.00,WUHU216HW,2013-10-19 06:46:00,
2013-10-18 23:47:00,52.9,17.6,30.00,West,270,2.5,5.4,25,0.00,,,0.00,WUHU216HW,2013-10-19 06:47:00,
2013-10-18 23:49:00,52.9,17.6,30.00,WNW,293,2.9,5.4,25,0.00,,,0.00,WUHU216HW,2013-10-19 06:49:00,
2013-10-18 23:50:00,52.9,17.6,30.00,West,270,3.1,5.1,25,0.00,,,0.00,WUHU216HW,2013-10-19 06:50:00,
2013-10-18 23:52:00,52.9,17.6,30.01,WNW,293,2.7,4.9,25,0.00,,,0.00,WUHU216HW,2013-10-19 06:52:00,
2013-10-18 23:54:00,53.1,17.8,30.01,West,270,2.7,4.9,25,0.00,,,0.00,WUHU216HW,2013-10-19 06:54:00,
2013-10-18 23:55:00,53.1,17.8,30.00,WNW,293,1.8,4.3,25,0.00,,,0.00,WUHU216HW,2013-10-19 06:55:00,
2013-10-18 23:57:00,53.1,17.8,30.01,West,270,3.1,3.4,25,0.00,,,0.00,WUHU216HW,2013-10-19 06:57:00,
2013-10-18 23:58:00,53.3,18.0,30.01,West,270,3.4,3.4,25,0.00,,,0.00,WUHU216HW,2013-10-19 06:58:00,
2013-10-18 23:59:00,53.3,18.0,30.00,West,270,2.5,3.4,25,0.00,,,0.00,WUHU216HW,2013-10-19 06:59:00,